Time,TemperatureF,DewpointF,PressureIn,WindDirection,WindDirectionDegrees,WindSpeedMPH,WindSpeedGustMPH,Humidity,HourlyPrecipIn,Conditions,Clouds,dailyrainin,SoftwareType,DateUTC
2013-07-01 00:00:00,60.3,53.4,29.99,NE,55,0.0,0.0,78,0.00,,,0.00,Wunderground v.1.15,2013-07-01 05:00:00,
2013-07-01 00:04:00,60.1,53.2,29.99,NE,55,0.0,0.0,78,0.00,,,0.00,Wunderground v.1.15,2013-07-01 05:04:00,
2013-07-01 00:05:00,60.1,53.2,29.98,NE,55,0.0,0.0,78,0.00,,,0.00,Wunderground v.1.15,2013-07-01 05:05:00,
2013-07-01 00:06:00,60.0,53.1,29.99,NE,55,0.0,2.0,78,0.00,,,0.00,Wunderground v.1.15,2013-07-01 05:06:00,
2013-07-01 00:07:00,60.0,53.1,29.98,NE,55,0.0,2.0,78,0.00,,,0.00,Wunderground v.1.15,2013-07-01 05:07:00,
2013-07-01 00:11:00,59.9,53.0,29.99,NE,55,0.0,1.0,78,0.00,,,0.00,Wunderground v.1.15,2013-07-01 05:11:00,
2013-07-01 00:12:00,59.8,52.9,29.98,NE,55,0.0,1.0,78,0.00,,,0.00,Wunderground v.1.15,2013-07-01 05:12:00,
2013-07-01 00:14:00,59.8,52.9,29.98,NE,55,0.0,1.0,78,0.00,,,0.00,Wunderground v.1.15,2013-07-01 05:14:00,
2013-07-01 00:15:00,59.8,52.6,29.98,NE,55,0.0,1.0,77,0.00,,,0.00,Wunderground v.1.15,2013-07-01 05:15:00,
2013-07-01 00:18:00,59.7,52.5,29.98,NE,55,0.0,1.0,77,0.00,,,0.00,Wunderground v.1.15,2013-07-01 05:18:00,
2013-07-01 00:19:00,59.7,52.5,29.98,NE,55,0.0,1.0,77,0.00,,,0.00,Wunderground v.1.15,2013-07-01 05:19:00,
2013-07-01 00:21:00,59.6,52.4,29.98,NE,55,0.0,1.0,77,0.00,,,0.00,Wunderground v.1.15,2013-07-01 05:21:00,
2013-07-01 00:23:00,59.6,52.4,29.98,NE,55,0.0,1.0,77,0.00,,,0.00,Wunderground v.1.15,2013-07-01 05:23:00,
2013-07-01 00:25:00,59.6,52.4,29.98,NE,55,0.0,2.0,77,0.00,,,0.00,Wunderground v.1.15,2013-07-01 05:25:00,
2013-07-01 00:28:00,59.5,51.9,29.98,NE,55,0.0,2.0,76,0.00,,,0.00,Wunderground v.1.15,2013-07-01 05:28:00,
2013-07-01 00:29:00,59.5,51.9,29.98,NE,54,0.0,3.0,76,0.00,,,0.00,Wunderground v.1.15,2013-07-01 05:29:00,
2013-07-01 00:30:00,59.5,51.9,29.98,NE,49,1.0,5.0,76,0.00,,,0.00,Wunderground v.1.15,2013-07-01 05:30:00,
2013-07-01 00:32:00,59.5,51.6,29.98,NE,48,1.0,5.0,75,0.00,,,0.00,Wunderground v.1.15,2013-07-01 05:32:00,
2013-07-01 00:36:00,59.5,51.6,29.98,NE,43,1.0,5.0,75,0.00,,,0.00,Wunderground v.1.15,2013-07-01 05:36:00,
2013-07-01 00:37:00,59.6,51.7,29.98,NE,43,1.0,5.0,75,0.00,,,0.00,Wunderground v.1.15,2013-07-01 05:37:00,
2013-07-01 00:38:00,59.6,51.7,29.98,NE,43,1.0,5.0,75,0.00,,,0.00,Wunderground v.1.15,2013-07-01 05:38:00,
2013-07-01 00:40:00,59.6,51.3,29.98,NE,43,1.0,1.0,74,0.00,,,0.00,Wunderground v.1.15,2013-07-01 05:40:00,
2013-07-01 00:41:00,59.6,51.3,29.98,NE,43,1.0,1.0,74,0.00,,,0.00,Wunderground v.1.15,2013-07-01 05:41:00,
2013-07-01 00:42:00,59.6,51.3,29.98,NE,43,0.0,1.0,74,0.00,,,0.00,Wunderground v.1.15,2013-07-01 05:42:00,
2013-07-01 00:43:00,59.6,51.3,29.98,NE,43,0.0,1.0,74,0.00,,,0.00,Wunderground v.1.15,2013-07-01 05:43:00,
2013-07-01 00:46:00,59.7,51.4,29.98,NE,43,0.0,1.0,74,0.00,,,0.00,Wunderground v.1.15,2013-07-01 05:46:00,
2013-07-01 00:47:00,59.7,51.4,29.98,NE,43,0.0,1.0,74,0.00,,,0.00,Wunderground v.1.15,2013-07-01 05:47:00,
2013-07-01 00:48:00,59.6,51.3,29.98,NE,43,0.0,1.0,74,0.00,,,0.00,Wunderground v.1.15,2013-07-01 05:48:00,
2013-07-01 00:51:00,59.6,51.3,29.98,NE,42,0.0,2.0,74,0.00,,,0.00,Wunderground v.1.15,2013-07-01 05:51:00,
2013-07-01 00:53:00,59.6,51.3,29.98,NE,42,0.0,2.0,74,0.00,,,0.00,Wunderground v.1.15,2013-07-01 05:53:00,
2013-07-01 00:55:00,59.6,51.3,29.98,NE,42,0.0,3.0,74,0.00,,,0.00,Wunderground v.1.15,2013-07-01 05:55:00,
2013-07-01 00:58:00,59.6,51.7,29.98,NE,42,1.0,3.0,75,0.00,,,0.00,Wunderground v.1.15,2013-07-01 05:58:00,
2013-07-01 01:00:00,59.5,51.2,29.98,NE,42,1.0,1.0,74,0.00,,,0.00,Wunderground v.1.15,2013-07-01 06:00:00,
2013-07-01 01:03:00,59.5,51.6,29.98,NE,42,1.0,1.0,75,0.00,,,0.00,Wunderground v.1.15,2013-07-01 06:03:00,
2013-07-01 01:04:00,59.5,51.6,29.98,NE,42,1.0,3.0,75,0.00,,,0.00,Wunderground v.1.15,2013-07-01 06:04:00,
2013-07-01 01:05:00,59.5,51.6,29.98,NE,42,1.0,3.0,75,0.00,,,0.00,Wunderground v.1.15,2013-07-01 06:05:00,
2013-07-01 01:09:00,59.3,51.4,29.98,NE,42,1.0,3.0,75,0.00,,,0.00,Wunderground v.1.15,2013-07-01 06:09:00,
2013-07-01 01:10:00,59.3,51.4,29.98,NE,42,1.0,2.0,75,0.00,,,0.00,Wunderground v.1.15,2013-07-01 06:10:00,
2013-07-01 01:11:00,59.3,51.4,29.98,NE,42,1.0,2.0,75,0.00,,,0.00,Wunderground v.1.15,2013-07-01 06:11:00,
2013-07-01 01:13:00,59.2,51.3,29.98,NE,42,1.0,2.0,75,0.00,,,0.00,Wunderground v.1.15,2013-07-01 06:13:00,
2013-07-01 01:15:00,59.1,51.5,29.98,NE,42,1.0,3.0,76,0.00,,,0.00,Wunderground v.1.15,2013-07-01 06:15:00,
2013-07-01 01:16:00,59.1,51.5,29.98,NE,42,1.0,3.0,76,0.00,,,0.00,Wunderground v.1.15,2013-07-01 06:16:00,
2013-07-01 01:19:00,59.0,51.4,29.98,NE,42,1.0,3.0,76,0.00,,,0.00,Wunderground v.1.15,2013-07-01 06:19:00,
2013-07-01 01:20:00,59.0,51.4,29.98,NE,42,1.0,3.0,76,0.00,,,0.00,Wunderground v.1.15,2013-07-01 06:20:00,
2013-07-01 01:23:00,58.9,51.7,29.98,NE,42,2.0,3.0,77,0.00,,,0.00,Wunderground v.1.15,2013-07-01 06:23:00,
2013-07-01 01:24:00,58.9,51.7,29.98,NE,42,2.0,3.0,77,0.00,,,0.00,Wunderground v.1.15,2013-07-01 06:24:00,
2013-07-01 01:26:00,58.9,51.7,29.98,NE,42,2.0,3.0,77,0.00,,,0.00,Wunderground v.1.15,2013-07-01 06:26:00,
2013-07-01 01:27:00,58.8,51.6,29.98,NE,42,2.0,3.0,77,0.00,,,0.00,Wunderground v.1.15,2013-07-01 06:27:00,
2013-07-01 01:29:00,58.8,51.6,29.98,NE,42,2.0,3.0,77,0.00,,,0.00,Wunderground v.1.15,2013-07-01 06:29:00,
2013-07-01 01:30:00,58.8,51.6,29.98,NE,42,2.0,2.0,77,0.00,,,0.00,Wunderground v.1.15,2013-07-01 06:30:00,
2013-07-01 01:32:00,58.8,51.6,29.98,NE,42,2.0,2.0,77,0.00,,,0.00,Wunderground v.1.15,2013-07-01 06:32:00,
2013-07-01 01:35:00,58.8,51.6,29.98,NE,42,1.0,2.0,77,0.00,,,0.00,Wunderground v.1.15,2013-07-01 06:35:00,
2013-07-01 01:36:00,58.8,51.6,29.98,NE,42,1.0,2.0,77,0.00,,,0.00,Wunderground v.1.15,2013-07-01 06:36:00,
2013-07-01 01:40:00,58.7,51.5,29.98,NE,40,1.0,4.0,77,0.00,,,0.00,Wunderground v.1.15,2013-07-01 06:40:00,
2013-07-01 01:41:00,58.7,51.5,29.98,NE,40,1.0,4.0,77,0.00,,,0.00,Wunderground v.1.15,2013-07-01 06:41:00,
2013-07-01 01:43:00,58.6,51.4,29.98,NE,40,1.0,4.0,77,0.00,,,0.00,Wunderground v.1.15,2013-07-01 06:43:00,
2013-07-01 01:47:00,58.6,51.1,29.97,NE,40,1.0,4.0,76,0.00,,,0.00,Wunderground v.1.15,2013-07-01 06:47:00,
2013-07-01 01:48:00,58.6,51.1,29.97,North,350,1.0,5.0,76,0.00,,,0.00,Wunderground v.1.15,2013-07-01 06:48:00,
2013-07-01 01:49:00,58.6,51.1,29.97,North,355,1.0,5.0,76,0.00,,,0.00,Wunderground v.1.15,2013-07-01 06:49:00,
2013-07-01 01:53:00,58.7,51.2,29.98,North,355,1.0,1.0,76,0.00,,,0.00,Wunderground v.1.15,2013-07-01 06:53:00,
2013-07-01 01:54:00,58.7,51.2,29.98,North,355,2.0,3.0,76,0.00,,,0.00,Wunderground v.1.15,2013-07-01 06:54:00,
2013-07-01 01:55:00,58.7,50.8,29.98,North,10,2.0,7.0,75,0.00,,,0.00,Wunderground v.1.15,2013-07-01 06:55:00,
2013-07-01 01:56:00,58.8,50.9,29.98,North,5,2.0,7.0,75,0.00,,,0.00,Wunderground v.1.15,2013-07-01 06:56:00,
2013-07-01 01:59:00,58.9,51.0,29.98,North,5,2.0,7.0,75,0.00,,,0.00,Wunderground v.1.15,2013-07-01 06:59:00,
2013-07-01 02:01:00,59.0,51.1,29.97,North,5,2.0,2.0,75,0.00,,,0.00,Wunderground v.1.15,2013-07-01 07:01:00,
2013-07-01 02:03:00,59.0,50.7,29.98,North,5,2.0,2.0,74,0.00,,,0.00,Wunderground v.1.15,2013-07-01 07:03:00,
2013-07-01 02:04:00,59.1,50.8,29.98,North,9,2.0,3.0,74,0.00,,,0.00,Wunderground v.1.15,2013-07-01 07:04:00,
2013-07-01 02:06:00,59.1,51.2,29.98,North,9,1.0,3.0,75,0.00,,,0.00,Wunderground v.1.15,2013-07-01 07:06:00,
2013-07-01 02:10:00,59.1,50.8,29.98,NNE,12,1.0,1.0,74,0.00,,,0.00,Wunderground v.1.15,2013-07-01 07:10:00,
2013-07-01 02:12:00,59.1,51.2,29.97,North,11,2.0,2.0,75,0.00,,,0.00,Wunderground v.1.15,2013-07-01 07:12:00,
2013-07-01 02:17:00,59.0,51.1,29.98,North,9,2.0,3.0,75,0.00,,,0.00,Wunderground v.1.15,2013-07-01 07:17:00,
2013-07-01 02:19:00,59.0,51.1,29.98,North,9,2.0,3.0,75,0.00,,,0.00,Wunderground v.1.15,2013-07-01 07:19:00,
2013-07-01 02:20:00,59.0,51.1,29.98,North,10,2.0,4.0,75,0.00,,,0.00,Wunderground v.1.15,2013-07-01 07:20:00,
2013-07-01 02:21:00,58.9,51.3,29.98,North,5,2.0,4.0,76,0.00,,,0.00,Wunderground v.1.15,2013-07-01 07:21:00,
2013-07-01 02:23:00,58.9,51.3,29.98,North,5,2.0,4.0,76,0.00,,,0.00,Wunderground v.1.15,2013-07-01 07:23:00,
2013-07-01 02:27:00,58.7,51.5,29.98,North,5,2.0,4.0,77,0.00,,,0.00,Wunderground v.1.15,2013-07-01 07:27:00,
2013-07-01 02:28:00,58.6,51.1,29.98,North,5,2.0,4.0,76,0.00,,,0.00,Wunderground v.1.15,2013-07-01 07:28:00,
2013-07-01 02:30:00,58.5,51.3,29.98,North,5,2.0,2.0,77,0.00,,,0.00,Wunderground v.1.15,2013-07-01 07:30:00,
2013-07-01 02:31:00,58.5,51.3,29.98,North,5,2.0,3.0,77,0.00,,,0.00,Wunderground v.1.15,2013-07-01 07:31:00,
2013-07-01 02:32:00,58.5,51.3,29.98,North,5,2.0,3.0,77,0.00,,,0.00,Wunderground v.1.15,2013-07-01 07:32:00,
2013-07-01 02:35:00,58.4,51.2,29.98,North,5,2.0,4.0,77,0.00,,,0.00,Wunderground v.1.15,2013-07-01 07:35:00,
2013-07-01 02:37:00,58.4,50.9,29.98,North,5,2.0,4.0,76,0.00,,,0.00,Wunderground v.1.15,2013-07-01 07:37:00,
2013-07-01 02:38:00,58.4,51.2,29.98,North,9,2.0,4.0,77,0.00,,,0.00,Wunderground v.1.15,2013-07-01 07:38:00,
2013-07-01 02:39:00,58.3,50.8,29.98,North,5,2.0,4.0,76,0.00,,,0.00,Wunderground v.1.15,2013-07-01 07:39:00,
2013-07-01 02:40:00,58.3,51.1,29.98,North,5,2.0,3.0,77,0.00,,,0.00,Wunderground v.1.15,2013-07-01 07:40:00,
2013-07-01 02:43:00,58.3,51.1,29.98,North,355,3.0,6.0,77,0.00,,,0.00,Wunderground v.1.15,2013-07-01 07:43:00,
2013-07-01 02:45:00,58.3,51.1,29.98,North,355,2.0,6.0,77,0.00,,,0.00,Wunderground v.1.15,2013-07-01 07:45:00,
2013-07-01 02:46:00,58.3,51.1,29.98,North,355,2.0,6.0,77,0.00,,,0.00,Wunderground v.1.15,2013-07-01 07:46:00,
2013-07-01 02:47:00,58.2,50.7,29.98,North,355,2.0,6.0,76,0.00,,,0.00,Wunderground v.1.15,2013-07-01 07:47:00,
2013-07-01 02:50:00,58.2,50.7,29.98,North,360,2.0,2.0,76,0.00,,,0.00,Wunderground v.1.15,2013-07-01 07:50:00,
2013-07-01 02:52:00,58.3,50.8,29.98,North,360,2.0,2.0,76,0.00,,,0.00,Wunderground v.1.15,2013-07-01 07:52:00,
2013-07-01 02:53:00,58.3,50.8,29.98,North,360,2.0,2.0,76,0.00,,,0.00,Wunderground v.1.15,2013-07-01 07:53:00,
2013-07-01 02:58:00,58.3,50.8,29.98,North,9,2.0,4.0,76,0.00,,,0.00,Wunderground v.1.15,2013-07-01 07:58:00,
2013-07-01 03:00:00,58.3,50.8,29.98,North,9,2.0,2.0,76,0.00,,,0.00,Wunderground v.1.15,2013-07-01 08:00:00,
2013-07-01 03:01:00,58.3,50.8,29.98,North,10,2.0,2.0,76,0.00,,,0.00,Wunderground v.1.15,2013-07-01 08:01:00,
2013-07-01 03:05:00,58.2,50.7,29.98,North,9,2.0,3.0,76,0.00,,,0.00,Wunderground v.1.15,2013-07-01 08:05:00,
2013-07-01 03:06:00,58.2,50.7,29.98,NNE,24,2.0,5.0,76,0.00,,,0.00,Wunderground v.1.15,2013-07-01 08:06:00,
2013-07-01 03:07:00,58.2,50.7,29.98,NNE,26,2.0,5.0,76,0.00,,,0.00,Wunderground v.1.15,2013-07-01 08:07:00,
2013-07-01 03:09:00,58.2,50.7,29.98,NNE,26,2.0,5.0,76,0.00,,,0.00,Wunderground v.1.15,2013-07-01 08:09:00,
2013-07-01 03:14:00,58.2,50.3,29.98,NNE,26,2.0,3.0,75,0.00,,,0.00,Wunderground v.1.15,2013-07-01 08:14:00,
2013-07-01 03:15:00,58.2,50.3,29.98,NNE,26,2.0,3.0,75,0.00,,,0.00,Wunderground v.1.15,2013-07-01 08:15:00,
2013-07-01 03:19:00,58.2,50.3,29.98,NNE,22,2.0,5.0,75,0.00,,,0.00,Wunderground v.1.15,2013-07-01 08:19:00,
2013-07-01 03:21:00,58.2,50.3,29.98,NNE,26,3.0,3.0,75,0.00,,,0.00,Wunderground v.1.15,2013-07-01 08:21:00,
2013-07-01 03:24:00,58.3,50.4,29.98,NNE,30,3.0,6.0,75,0.00,,,0.00,Wunderground v.1.15,2013-07-01 08:24:00,
2013-07-01 03:25:00,58.3,50.4,29.98,NNE,32,3.0,6.0,75,0.00,,,0.00,Wunderground v.1.15,2013-07-01 08:25:00,
2013-07-01 03:26:00,58.4,50.5,29.98,NNE,29,3.0,6.0,75,0.00,,,0.00,Wunderground v.1.15,2013-07-01 08:26:00,
2013-07-01 03:30:00,58.4,50.1,29.98,NNE,30,3.0,3.0,74,0.00,,,0.00,Wunderground v.1.15,2013-07-01 08:30:00,
2013-07-01 03:31:00,58.4,50.1,29.98,NNE,30,3.0,4.0,74,0.00,,,0.00,Wunderground v.1.15,2013-07-01 08:31:00,
2013-07-01 03:33:00,58.5,50.2,29.98,NNE,24,3.0,4.0,74,0.00,,,0.00,Wunderground v.1.15,2013-07-01 08:33:00,
2013-07-01 03:34:00,58.5,50.2,29.98,NNE,24,3.0,4.0,74,0.00,,,0.00,Wunderground v.1.15,2013-07-01 08:34:00,
2013-07-01 03:36:00,58.5,49.9,29.98,NNE,23,3.0,4.0,73,0.00,,,0.00,Wunderground v.1.15,2013-07-01 08:36:00,
2013-07-01 03:39:00,58.5,50.2,29.98,NNE,22,3.0,4.0,74,0.00,,,0.00,Wunderground v.1.15,2013-07-01 08:39:00,
2013-07-01 03:40:00,58.5,50.2,29.98,NNE,22,3.0,3.0,74,0.00,,,0.00,Wunderground v.1.15,2013-07-01 08:40:00,
2013-07-01 03:42:00,58.5,50.2,29.98,NNE,18,3.0,3.0,74,0.00,,,0.00,Wunderground v.1.15,2013-07-01 08:42:00,
2013-07-01 03:44:00,58.5,50.2,29.98,NNE,18,2.0,3.0,74,0.00,,,0.00,Wunderground v.1.15,2013-07-01 08:44:00,
2013-07-01 03:45:00,58.4,50.1,29.98,NNE,17,2.0,3.0,74,0.00,,,0.00,Wunderground v.1.15,2013-07-01 08:45:00,
2013-07-01 03:47:00,58.4,50.1,29.98,NNE,17,2.0,3.0,74,0.00,,,0.00,Wunderground v.1.15,2013-07-01 08:47:00,
2013-07-01 03:48:00,58.4,50.1,29.98,NNE,17,2.0,3.0,74,0.00,,,0.00,Wunderground v.1.15,2013-07-01 08:48:00,
2013-07-01 03:49:00,58.3,50.0,29.98,NNE,17,2.0,3.0,74,0.00,,,0.00,Wunderground v.1.15,2013-07-01 08:49:00,
2013-07-01 03:50:00,58.2,50.3,29.98,NNE,17,2.0,2.0,75,0.00,,,0.00,Wunderground v.1.15,2013-07-01 08:50:00,
2013-07-01 03:53:00,58.2,50.3,29.98,NNE,17,1.0,2.0,75,0.00,,,0.00,Wunderground v.1.15,2013-07-01 08:53:00,
2013-07-01 03:54:00,58.1,50.2,29.98,NNE,17,1.0,2.0,75,0.00,,,0.00,Wunderground v.1.15,2013-07-01 08:54:00,
2013-07-01 03:55:00,58.1,50.2,29.98,NNE,15,1.0,2.0,75,0.00,,,0.00,Wunderground v.1.15,2013-07-01 08:55:00,
2013-07-01 03:56:00,58.0,50.1,29.98,NNE,14,1.0,4.0,75,0.00,,,0.00,Wunderground v.1.15,2013-07-01 08:56:00,
2013-07-01 04:00:00,57.9,50.0,29.98,NNE,14,2.0,2.0,75,0.00,,,0.00,Wunderground v.1.15,2013-07-01 09:00:00,
2013-07-01 04:01:00,57.9,50.0,29.98,NNE,14,2.0,2.0,75,0.00,,,0.00,Wunderground v.1.15,2013-07-01 09:01:00,
2013-07-01 04:02:00,57.8,49.9,29.98,NNE,14,2.0,2.0,75,0.00,,,0.00,Wunderground v.1.15,2013-07-01 09:02:00,
2013-07-01 04:05:00,57.8,49.9,29.98,NNE,13,1.0,3.0,75,0.00,,,0.00,Wunderground v.1.15,2013-07-01 09:05:00,
2013-07-01 04:07:00,57.7,49.8,29.98,NNE,13,1.0,3.0,75,0.00,,,0.00,Wunderground v.1.15,2013-07-01 09:07:00,
2013-07-01 04:10:00,57.6,49.7,29.98,NNE,13,1.0,2.0,75,0.00,,,0.00,Wunderground v.1.15,2013-07-01 09:10:00,
2013-07-01 04:12:00,57.6,50.1,29.98,North,11,2.0,3.0,76,0.00,,,0.00,Wunderground v.1.15,2013-07-01 09:12:00,
2013-07-01 04:14:00,57.6,50.1,29.98,North,11,2.0,3.0,76,0.00,,,0.00,Wunderground v.1.15,2013-07-01 09:14:00,
2013-07-01 04:15:00,57.5,49.6,29.98,North,11,2.0,3.0,75,0.00,,,0.00,Wunderground v.1.15,2013-07-01 09:15:00,
2013-07-01 04:16:00,57.5,50.0,29.98,North,11,2.0,3.0,76,0.00,,,0.00,Wunderground v.1.15,2013-07-01 09:16:00,
2013-07-01 04:18:00,57.5,50.0,29.98,North,11,2.0,4.0,76,0.00,,,0.00,Wunderground v.1.15,2013-07-01 09:18:00,
2013-07-01 04:19:00,57.4,49.9,29.98,NNE,14,2.0,4.0,76,0.00,,,0.00,Wunderground v.1.15,2013-07-01 09:19:00,
2013-07-01 04:21:00,57.4,49.9,29.99,North,9,2.0,4.0,76,0.00,,,0.00,Wunderground v.1.15,2013-07-01 09:21:00,
2013-07-01 04:25:00,57.3,49.8,29.99,North,11,2.0,4.0,76,0.00,,,0.00,Wunderground v.1.15,2013-07-01 09:25:00,
2013-07-01 04:28:00,57.3,49.8,29.99,North,11,2.0,4.0,76,0.00,,,0.00,Wunderground v.1.15,2013-07-01 09:28:00,
2013-07-01 04:30:00,57.2,49.7,29.99,North,11,2.0,2.0,76,0.00,,,0.00,Wunderground v.1.15,2013-07-01 09:30:00,
2013-07-01 04:31:00,57.2,49.7,29.99,North,11,2.0,2.0,76,0.00,,,0.00,Wunderground v.1.15,2013-07-01 09:31:00,
2013-07-01 04:34:00,57.2,49.7,29.99,North,11,1.0,3.0,76,0.00,,,0.00,Wunderground v.1.15,2013-07-01 09:34:00,
2013-07-01 04:35:00,57.1,49.6,29.99,North,11,1.0,3.0,76,0.00,,,0.00,Wunderground v.1.15,2013-07-01 09:35:00,
2013-07-01 04:38:00,57.1,49.6,29.99,North,10,2.0,4.0,76,0.00,,,0.00,Wunderground v.1.15,2013-07-01 09:38:00,
2013-07-01 04:40:00,57.0,49.5,29.99,North,10,2.0,3.0,76,0.00,,,0.00,Wunderground v.1.15,2013-07-01 09:40:00,
2013-07-01 04:43:00,57.0,49.5,29.99,North,9,3.0,4.0,76,0.00,,,0.00,Wunderground v.1.15,2013-07-01 09:43:00,
2013-07-01 04:44:00,57.0,49.9,29.99,North,9,3.0,4.0,77,0.00,,,0.00,Wunderground v.1.15,2013-07-01 09:44:00,
2013-07-01 04:47:00,56.9,49.8,29.99,North,5,2.0,4.0,77,0.00,,,0.00,Wunderground v.1.15,2013-07-01 09:47:00,
2013-07-01 04:48:00,56.9,49.8,29.99,North,5,3.0,4.0,77,0.00,,,0.00,Wunderground v.1.15,2013-07-01 09:48:00,
2013-07-01 04:53:00,56.8,50.0,29.99,North,5,2.0,3.0,78,0.00,,,0.00,Wunderground v.1.15,2013-07-01 09:53:00,
2013-07-01 04:56:00,56.7,49.9,30.00,North,5,3.0,3.0,78,0.00,,,0.00,Wunderground v.1.15,2013-07-01 09:56:00,
2013-07-01 04:57:00,56.7,49.9,29.99,North,5,3.0,3.0,78,0.00,,,0.00,Wunderground v.1.15,2013-07-01 09:57:00,
2013-07-01 04:59:00,56.6,49.8,30.00,North,5,3.0,4.0,78,0.00,,,0.00,Wunderground v.1.15,2013-07-01 09:59:00,
2013-07-01 05:01:00,56.6,49.8,30.00,North,5,3.0,3.0,78,0.00,,,0.00,Wunderground v.1.15,2013-07-01 10:01:00,
2013-07-01 05:02:00,56.6,49.8,30.00,North,5,2.0,3.0,78,0.00,,,0.00,Wunderground v.1.15,2013-07-01 10:02:00,
2013-07-01 05:03:00,56.6,49.8,30.00,North,5,2.0,3.0,78,0.00,,,0.00,Wunderground v.1.15,2013-07-01 10:03:00,
2013-07-01 05:04:00,56.6,49.8,30.00,North,5,2.0,3.0,78,0.00,,,0.00,Wunderground v.1.15,2013-07-01 10:04:00,
2013-07-01 05:07:00,56.6,49.8,30.00,North,5,2.0,3.0,78,0.00,,,0.00,Wunderground v.1.15,2013-07-01 10:07:00,
2013-07-01 05:09:00,56.6,49.8,30.00,North,5,2.0,3.0,78,0.00,,,0.00,Wunderground v.1.15,2013-07-01 10:09:00,
2013-07-01 05:11:00,56.6,49.8,30.00,North,5,2.0,2.0,78,0.00,,,0.00,Wunderground v.1.15,2013-07-01 10:11:00,
2013-07-01 05:13:00,56.6,49.8,30.00,North,5,2.0,2.0,78,0.00,,,0.00,Wunderground v.1.15,2013-07-01 10:13:00,
2013-07-01 05:14:00,56.5,49.7,30.00,North,9,2.0,3.0,78,0.00,,,0.00,Wunderground v.1.15,2013-07-01 10:14:00,
2013-07-01 05:18:00,56.5,49.7,30.00,North,360,2.0,3.0,78,0.00,,,0.00,Wunderground v.1.15,2013-07-01 10:18:00,
2013-07-01 05:19:00,56.4,49.6,30.00,North,360,2.0,3.0,78,0.00,,,0.00,Wunderground v.1.15,2013-07-01 10:19:00,
2013-07-01 05:22:00,56.3,49.9,30.00,North,9,2.0,2.0,79,0.00,,,0.00,Wunderground v.1.15,2013-07-01 10:22:00,
2013-07-01 05:25:00,56.3,49.9,30.00,North,5,2.0,2.0,79,0.00,,,0.00,Wunderground v.1.15,2013-07-01 10:25:00,
2013-07-01 05:27:00,56.2,49.8,30.00,North,5,2.0,3.0,79,0.00,,,0.00,Wunderground v.1.15,2013-07-01 10:27:00,
2013-07-01 05:29:00,56.2,49.8,29.99,North,5,2.0,3.0,79,0.00,,,0.00,Wunderground v.1.15,2013-07-01 10:29:00,
2013-07-01 05:31:00,56.1,49.7,30.00,North,9,1.0,2.0,79,0.00,,,0.00,Wunderground v.1.15,2013-07-01 10:31:00,
2013-07-01 05:33:00,56.1,49.7,30.00,North,360,2.0,4.0,79,0.00,,,0.00,Wunderground v.1.15,2013-07-01 10:33:00,
2013-07-01 05:34:00,56.0,49.6,30.00,North,360,2.0,4.0,79,0.00,,,0.00,Wunderground v.1.15,2013-07-01 10:34:00,
2013-07-01 05:35:00,56.0,49.9,30.00,North,360,2.0,4.0,80,0.00,,,0.00,Wunderground v.1.15,2013-07-01 10:35:00,
2013-07-01 05:36:00,56.0,49.6,30.00,North,360,2.0,4.0,79,0.00,,,0.00,Wunderground v.1.15,2013-07-01 10:36:00,
2013-07-01 05:39:00,55.9,49.8,30.00,North,360,2.0,4.0,80,0.00,,,0.00,Wunderground v.1.15,2013-07-01 10:39:00,
2013-07-01 05:40:00,55.9,49.8,30.00,North,360,3.0,3.0,80,0.00,,,0.00,Wunderground v.1.15,2013-07-01 10:40:00,
2013-07-01 05:44:00,56.0,49.6,30.00,North,5,2.0,6.0,79,0.00,,,0.00,Wunderground v.1.15,2013-07-01 10:44:00,
2013-07-01 05:45:00,56.0,49.6,30.00,North,360,2.0,6.0,79,0.00,,,0.00,Wunderground v.1.15,2013-07-01 10:45:00,
2013-07-01 05:46:00,56.0,49.6,30.00,North,360,2.0,6.0,79,0.00,,,0.00,Wunderground v.1.15,2013-07-01 10:46:00,
2013-07-01 05:47:00,56.0,49.6,30.00,North,360,2.0,6.0,79,0.00,,,0.00,Wunderground v.1.15,2013-07-01 10:47:00,
2013-07-01 05:48:00,56.1,49.7,30.00,North,360,2.0,6.0,79,0.00,,,0.00,Wunderground v.1.15,2013-07-01 10:48:00,
2013-07-01 05:50:00,56.1,49.7,30.00,NNE,17,2.0,2.0,79,0.00,,,0.00,Wunderground v.1.15,2013-07-01 10:50:00,
2013-07-01 05:51:00,56.2,49.8,30.00,NNE,17,2.0,2.0,79,0.00,,,0.00,Wunderground v.1.15,2013-07-01 10:51:00,
2013-07-01 05:55:00,56.3,49.9,30.00,NNE,23,2.0,4.0,79,0.00,,,0.00,Wunderground v.1.15,2013-07-01 10:55:00,
2013-07-01 05:56:00,56.3,49.9,30.00,NNE,22,2.0,4.0,79,0.00,,,0.00,Wunderground v.1.15,2013-07-01 10:56:00,
2013-07-01 05:57:00,56.4,49.6,30.00,NNE,22,2.0,4.0,78,0.00,,,0.00,Wunderground v.1.15,2013-07-01 10:57:00,
2013-07-01 05:59:00,56.4,49.6,30.00,NNE,24,2.0,5.0,78,0.00,,,0.00,Wunderground v.1.15,2013-07-01 10:59:00,
2013-07-01 06:02:00,56.5,49.7,30.00,NNE,24,2.0,2.0,78,0.00,,,0.00,Wunderground v.1.15,2013-07-01 11:02:00,
2013-07-01 06:03:00,56.5,49.7,30.00,NNE,24,2.0,3.0,78,0.00,,,0.00,Wunderground v.1.15,2013-07-01 11:03:00,
2013-07-01 06:04:00,56.6,49.8,30.00,NNE,24,2.0,3.0,78,0.00,,,0.00,Wunderground v.1.15,2013-07-01 11:04:00,
2013-07-01 06:07:00,56.6,49.8,30.00,NNE,25,2.0,6.0,78,0.00,,,0.00,Wunderground v.1.15,2013-07-01 11:07:00,
2013-07-01 06:08:00,56.6,49.8,30.00,NNE,24,2.0,6.0,78,0.00,,,0.00,Wunderground v.1.15,2013-07-01 11:08:00,
2013-07-01 06:10:00,56.7,49.9,30.00,NNE,33,2.0,2.0,78,0.00,,,0.00,Wunderground v.1.15,2013-07-01 11:10:00,
2013-07-01 06:13:00,56.9,50.1,30.00,NE,49,3.0,7.0,78,0.00,,,0.00,Wunderground v.1.15,2013-07-01 11:13:00,
2013-07-01 06:15:00,57.0,49.9,30.00,North,350,3.0,7.0,77,0.00,,,0.00,Wunderground v.1.15,2013-07-01 11:15:00,
2013-07-01 06:16:00,57.1,50.0,30.01,North,5,3.0,7.0,77,0.00,,,0.00,Wunderground v.1.15,2013-07-01 11:16:00,
2013-07-01 06:17:00,57.1,50.0,30.01,NE,35,3.0,7.0,77,0.00,,,0.00,Wunderground v.1.15,2013-07-01 11:17:00,
2013-07-01 06:19:00,57.3,50.1,30.01,NNE,16,3.0,7.0,77,0.00,,,0.00,Wunderground v.1.15,2013-07-01 11:19:00,
2013-07-01 06:21:00,57.3,50.1,30.01,NE,39,4.0,8.0,77,0.00,,,0.00,Wunderground v.1.15,2013-07-01 11:21:00,
2013-07-01 06:23:00,57.4,50.2,30.01,NE,39,4.0,8.0,77,0.00,,,0.00,Wunderground v.1.15,2013-07-01 11:23:00,
2013-07-01 06:24:00,57.5,50.3,30.01,North,5,4.0,8.0,77,0.00,,,0.00,Wunderground v.1.15,2013-07-01 11:24:00,
2013-07-01 06:27:00,57.6,50.1,30.01,NNE,31,4.0,8.0,76,0.00,,,0.00,Wunderground v.1.15,2013-07-01 11:27:00,
2013-07-01 06:30:00,57.8,50.6,30.02,NE,48,4.0,4.0,77,0.00,,,0.00,Wunderground v.1.15,2013-07-01 11:30:00,
2013-07-01 06:31:00,57.8,50.3,30.02,NE,44,4.0,4.0,76,0.00,,,0.00,Wunderground v.1.15,2013-07-01 11:31:00,
2013-07-01 06:37:00,58.0,50.8,30.02,North,5,3.0,6.0,77,0.00,,,0.00,Wunderground v.1.15,2013-07-01 11:37:00,
2013-07-01 06:38:00,58.0,50.5,30.02,NE,49,3.0,6.0,76,0.00,,,0.00,Wunderground v.1.15,2013-07-01 11:38:00,
2013-07-01 06:39:00,58.1,50.6,30.02,North,5,3.0,6.0,76,0.00,,,0.00,Wunderground v.1.15,2013-07-01 11:39:00,
2013-07-01 06:41:00,58.2,50.7,30.02,NNE,28,4.0,6.0,76,0.00,,,0.00,Wunderground v.1.15,2013-07-01 11:41:00,
2013-07-01 06:43:00,58.3,50.8,30.02,NNE,28,4.0,6.0,76,0.00,,,0.00,Wunderground v.1.15,2013-07-01 11:43:00,
2013-07-01 06:45:00,58.4,50.9,30.02,NNE,27,4.0,6.0,76,0.00,,,0.00,Wunderground v.1.15,2013-07-01 11:45:00,
2013-07-01 06:47:00,58.5,51.0,30.02,North,9,4.0,7.0,76,0.00,,,0.00,Wunderground v.1.15,2013-07-01 11:47:00,
2013-07-01 06:50:00,58.7,50.8,30.02,NNE,13,5.0,5.0,75,0.00,,,0.00,Wunderground v.1.15,2013-07-01 11:50:00,
2013-07-01 06:52:00,58.9,51.0,30.02,North,11,4.0,9.0,75,0.00,,,0.00,Wunderground v.1.15,2013-07-01 11:52:00,
2013-07-01 06:53:00,58.9,51.0,30.02,NE,48,4.0,9.0,75,0.00,,,0.00,Wunderground v.1.15,2013-07-01 11:53:00,
2013-07-01 06:56:00,59.2,51.3,30.02,North,11,5.0,9.0,75,0.00,,,0.00,Wunderground v.1.15,2013-07-01 11:56:00,
2013-07-01 06:57:00,59.2,51.3,30.02,NE,49,5.0,9.0,75,0.00,,,0.00,Wunderground v.1.15,2013-07-01 11:57:00,
2013-07-01 06:59:00,59.3,51.4,30.02,NNE,33,4.0,10.0,75,0.00,,,0.00,Wunderground v.1.15,2013-07-01 11:59:00,
2013-07-01 07:02:00,59.5,51.6,30.02,NE,38,5.0,5.0,75,0.00,,,0.00,Wunderground v.1.15,2013-07-01 12:02:00,
2013-07-01 07:03:00,59.5,51.2,30.02,NNE,32,4.0,5.0,74,0.00,,,0.00,Wunderground v.1.15,2013-07-01 12:03:00,
2013-07-01 07:04:00,59.6,51.7,30.02,NNW,335,4.0,7.0,75,0.00,,,0.00,Wunderground v.1.15,2013-07-01 12:04:00,
2013-07-01 07:06:00,59.7,51.8,30.02,NNE,26,4.0,7.0,75,0.00,,,0.00,Wunderground v.1.15,2013-07-01 12:06:00,
2013-07-01 07:09:00,59.9,51.6,30.03,NE,34,4.0,7.0,74,0.00,,,0.00,Wunderground v.1.15,2013-07-01 12:09:00,
2013-07-01 07:11:00,60.0,51.7,30.02,NNE,22,4.0,5.0,74,0.00,,,0.00,Wunderground v.1.15,2013-07-01 12:11:00,
2013-07-01 07:13:00,60.1,51.8,30.02,NE,39,4.0,5.0,74,0.00,,,0.00,Wunderground v.1.15,2013-07-01 12:13:00,
2013-07-01 07:14:00,60.2,51.9,30.03,NNE,19,4.0,5.0,74,0.00,,,0.00,Wunderground v.1.15,2013-07-01 12:14:00,
2013-07-01 07:18:00,60.4,52.1,30.02,NE,41,5.0,7.0,74,0.00,,,0.00,Wunderground v.1.15,2013-07-01 12:18:00,
2013-07-01 07:19:00,60.5,52.2,30.02,NNE,28,5.0,7.0,74,0.00,,,0.00,Wunderground v.1.15,2013-07-01 12:19:00,
2013-07-01 07:20:00,60.5,52.2,30.02,NE,40,4.0,6.0,74,0.00,,,0.00,Wunderground v.1.15,2013-07-01 12:20:00,
2013-07-01 07:21:00,60.7,52.4,30.02,NE,44,4.0,7.0,74,0.00,,,0.00,Wunderground v.1.15,2013-07-01 12:21:00,
2013-07-01 07:23:00,60.7,52.4,30.02,NNE,30,4.0,7.0,74,0.00,,,0.00,Wunderground v.1.15,2013-07-01 12:23:00,
2013-07-01 07:25:00,60.9,52.6,30.03,NNE,17,4.0,7.0,74,0.00,,,0.00,Wunderground v.1.15,2013-07-01 12:25:00,
2013-07-01 07:26:00,60.9,52.6,30.03,NNE,23,4.0,7.0,74,0.00,,,0.00,Wunderground v.1.15,2013-07-01 12:26:00,
2013-07-01 07:28:00,61.0,52.7,30.03,NE,40,4.0,7.0,74,0.00,,,0.00,Wunderground v.1.15,2013-07-01 12:28:00,
2013-07-01 07:29:00,61.1,52.7,30.03,NNE,27,4.0,9.0,74,0.00,,,0.00,Wunderground v.1.15,2013-07-01 12:29:00,
2013-07-01 07:33:00,61.3,52.6,30.03,NNE,22,5.0,9.0,73,0.00,,,0.00,Wunderground v.1.15,2013-07-01 12:33:00,
2013-07-01 07:35:00,61.5,52.8,30.03,NE,51,5.0,9.0,73,0.00,,,0.00,Wunderground v.1.15,2013-07-01 12:35:00,
2013-07-01 07:36:00,61.6,52.9,30.03,NNE,28,5.0,9.0,73,0.00,,,0.00,Wunderground v.1.15,2013-07-01 12:36:00,
2013-07-01 07:37:00,61.6,52.9,30.03,NNE,24,5.0,9.0,73,0.00,,,0.00,Wunderground v.1.15,2013-07-01 12:37:00,
2013-07-01 07:42:00,62.0,52.9,30.03,North,11,5.0,8.0,72,0.00,,,0.00,Wunderground v.1.15,2013-07-01 12:42:00,
2013-07-01 07:43:00,62.1,53.3,30.03,NNE,19,4.0,8.0,73,0.00,,,0.00,Wunderground v.1.15,2013-07-01 12:43:00,
2013-07-01 07:44:00,62.2,53.4,30.03,NNE,20,4.0,8.0,73,0.00,,,0.00,Wunderground v.1.15,2013-07-01 12:44:00,
2013-07-01 07:46:00,62.3,53.5,30.03,NE,36,4.0,8.0,73,0.00,,,0.00,Wunderground v.1.15,2013-07-01 12:46:00,
2013-07-01 07:49:00,62.5,53.3,30.03,NNE,32,4.0,8.0,72,0.00,,,0.00,Wunderground v.1.15,2013-07-01 12:49:00,
2013-07-01 07:51:00,62.7,53.5,30.03,NNE,28,4.0,5.0,72,0.00,,,0.00,Wunderground v.1.15,2013-07-01 12:51:00,
2013-07-01 07:53:00,62.8,53.6,30.04,NNE,27,4.0,5.0,72,0.00,,,0.00,Wunderground v.1.15,2013-07-01 12:53:00,
2013-07-01 07:55:00,63.0,53.4,30.04,NNE,32,4.0,10.0,71,0.00,,,0.00,Wunderground v.1.15,2013-07-01 12:55:00,
2013-07-01 07:57:00,63.0,53.1,30.04,NNE,28,5.0,10.0,70,0.00,,,0.00,Wunderground v.1.15,2013-07-01 12:57:00,
2013-07-01 07:58:00,63.1,53.5,30.04,NNE,26,5.0,10.0,71,0.00,,,0.00,Wunderground v.1.15,2013-07-01 12:58:00,
2013-07-01 07:59:00,63.2,53.6,30.04,NNE,25,5.0,10.0,71,0.00,,,0.00,Wunderground v.1.15,2013-07-01 12:59:00,
2013-07-01 08:02:00,63.4,54.2,30.04,NE,42,4.0,6.0,72,0.00,,,0.00,Wunderground v.1.15,2013-07-01 13:02:00,
2013-07-01 08:05:00,63.6,54.4,30.04,NE,44,4.0,6.0,72,0.00,,,0.00,Wunderground v.1.15,2013-07-01 13:05:00,
2013-07-01 08:07:00,63.8,54.2,30.04,NE,44,3.0,6.0,71,0.00,,,0.00,Wunderground v.1.15,2013-07-01 13:07:00,
2013-07-01 08:08:00,63.9,54.3,30.04,NNE,30,3.0,6.0,71,0.00,,,0.00,Wunderground v.1.15,2013-07-01 13:08:00,
2013-07-01 08:09:00,63.9,54.3,30.04,NE,46,3.0,6.0,71,0.00,,,0.00,Wunderground v.1.15,2013-07-01 13:09:00,
2013-07-01 08:11:00,64.0,54.4,30.04,NNE,32,4.0,4.0,71,0.00,,,0.00,Wunderground v.1.15,2013-07-01 13:11:00,
2013-07-01 08:14:00,64.1,54.1,30.04,NE,37,3.0,4.0,70,0.00,,,0.00,Wunderground v.1.15,2013-07-01 13:14:00,
2013-07-01 08:15:00,64.1,54.1,30.04,NNE,32,4.0,4.0,70,0.00,,,0.00,Wunderground v.1.15,2013-07-01 13:15:00,
2013-07-01 08:16:00,64.2,53.8,30.04,NNE,22,4.0,4.0,69,0.00,,,0.00,Wunderground v.1.15,2013-07-01 13:16:00,
2013-07-01 08:17:00,64.2,54.2,30.04,NNE,31,4.0,4.0,70,0.00,,,0.00,Wunderground v.1.15,2013-07-01 13:17:00,
2013-07-01 08:21:00,64.4,54.8,30.05,NE,48,3.0,4.0,71,0.00,,,0.00,Wunderground v.1.15,2013-07-01 13:21:00,
2013-07-01 08:22:00,64.5,54.9,30.04,NE,46,3.0,4.0,71,0.00,,,0.00,Wunderground v.1.15,2013-07-01 13:22:00,
2013-07-01 08:25:00,64.7,55.1,30.05,NNE,30,3.0,7.0,71,0.00,,,0.00,Wunderground v.1.15,2013-07-01 13:25:00,
2013-07-01 08:26:00,64.8,55.2,30.05,NE,34,3.0,7.0,71,0.00,,,0.00,Wunderground v.1.15,2013-07-01 13:26:00,
2013-07-01 08:28:00,65.0,55.4,30.05,NNW,336,3.0,7.0,71,0.00,,,0.00,Wunderground v.1.15,2013-07-01 13:28:00,
2013-07-01 08:29:00,65.1,55.1,30.05,NNE,24,3.0,7.0,70,0.00,,,0.00,Wunderground v.1.15,2013-07-01 13:29:00,
2013-07-01 08:31:00,65.2,55.2,30.05,NE,47,3.0,3.0,70,0.00,,,0.00,Wunderground v.1.15,2013-07-01 13:31:00,
2013-07-01 08:33:00,65.4,55.4,30.05,NE,34,4.0,4.0,70,0.00,,,0.00,Wunderground v.1.15,2013-07-01 13:33:00,
2013-07-01 08:36:00,65.7,55.2,30.05,NE,45,4.0,5.0,69,0.00,,,0.00,Wunderground v.1.15,2013-07-01 13:36:00,
2013-07-01 08:37:00,65.7,54.8,30.05,NNE,14,4.0,5.0,68,0.00,,,0.00,Wunderground v.1.15,2013-07-01 13:37:00,
2013-07-01 08:38:00,65.8,55.3,30.05,NE,45,4.0,5.0,69,0.00,,,0.00,Wunderground v.1.15,2013-07-01 13:38:00,
2013-07-01 08:39:00,65.9,55.4,30.05,NE,37,3.0,5.0,69,0.00,,,0.00,Wunderground v.1.15,2013-07-01 13:39:00,
2013-07-01 08:43:00,66.2,55.3,30.05,NNE,19,4.0,4.0,68,0.00,,,0.00,Wunderground v.1.15,2013-07-01 13:43:00,
2013-07-01 08:44:00,66.2,55.7,30.05,NE,46,4.0,6.0,69,0.00,,,0.00,Wunderground v.1.15,2013-07-01 13:44:00,
2013-07-01 08:45:00,66.3,55.4,30.05,NE,36,3.0,6.0,68,0.00,,,0.00,Wunderground v.1.15,2013-07-01 13:45:00,
2013-07-01 08:46:00,66.4,55.5,30.05,North,11,4.0,6.0,68,0.00,,,0.00,Wunderground v.1.15,2013-07-01 13:46:00,
2013-07-01 08:49:00,66.6,55.7,30.05,NNE,12,4.0,6.0,68,0.00,,,0.00,Wunderground v.1.15,2013-07-01 13:49:00,
2013-07-01 08:50:00,66.7,55.8,30.05,NNE,13,3.0,3.0,68,0.00,,,0.00,Wunderground v.1.15,2013-07-01 13:50:00,
2013-07-01 08:51:00,66.8,56.3,30.05,NNE,21,3.0,4.0,69,0.00,,,0.00,Wunderground v.1.15,2013-07-01 13:51:00,
2013-07-01 08:55:00,67.1,55.8,30.05,NE,36,3.0,6.0,67,0.00,,,0.00,Wunderground v.1.15,2013-07-01 13:55:00,
2013-07-01 08:56:00,67.2,55.5,30.05,North,5,3.0,6.0,66,0.00,,,0.00,Wunderground v.1.15,2013-07-01 13:56:00,
2013-07-01 08:57:00,67.3,55.5,30.05,NNE,19,4.0,6.0,66,0.00,,,0.00,Wunderground v.1.15,2013-07-01 13:57:00,
2013-07-01 09:00:00,67.5,56.2,30.05,NE,46,4.0,4.0,67,0.00,,,0.00,Wunderground v.1.15,2013-07-01 14:00:00,
2013-07-01 09:02:00,67.6,55.8,30.05,NE,38,4.0,4.0,66,0.00,,,0.00,Wunderground v.1.15,2013-07-01 14:02:00,
2013-07-01 09:04:00,67.8,56.4,30.05,NE,37,4.0,7.0,67,0.00,,,0.00,Wunderground v.1.15,2013-07-01 14:04:00,
2013-07-01 09:07:00,68.0,56.6,30.05,NNE,22,3.0,7.0,67,0.00,,,0.00,Wunderground v.1.15,2013-07-01 14:07:00,
2013-07-01 09:08:00,68.1,57.1,30.05,NNE,12,3.0,7.0,68,0.00,,,0.00,Wunderground v.1.15,2013-07-01 14:08:00,
2013-07-01 09:09:00,68.2,56.8,30.05,NNE,22,3.0,7.0,67,0.00,,,0.00,Wunderground v.1.15,2013-07-01 14:09:00,
2013-07-01 09:10:00,68.3,56.5,30.05,North,5,4.0,4.0,66,0.00,,,0.00,Wunderground v.1.15,2013-07-01 14:10:00,
2013-07-01 09:12:00,68.4,57.0,30.05,North,11,3.0,4.0,67,0.00,,,0.00,Wunderground v.1.15,2013-07-01 14:12:00,
2013-07-01 09:13:00,68.5,57.5,30.05,North,9,3.0,4.0,68,0.00,,,0.00,Wunderground v.1.15,2013-07-01 14:13:00,
2013-07-01 09:16:00,68.7,57.3,30.05,NE,51,3.0,5.0,67,0.00,,,0.00,Wunderground v.1.15,2013-07-01 14:16:00,
2013-07-01 09:17:00,68.8,57.4,30.05,NE,56,3.0,5.0,67,0.00,,,0.00,Wunderground v.1.15,2013-07-01 14:17:00,
2013-07-01 09:18:00,68.9,57.1,30.05,NE,56,3.0,5.0,66,0.00,,,0.00,Wunderground v.1.15,2013-07-01 14:18:00,
2013-07-01 09:20:00,69.0,58.0,30.05,NE,55,2.0,7.0,68,0.00,,,0.00,Wunderground v.1.15,2013-07-01 14:20:00,
2013-07-01 09:22:00,69.2,56.9,30.05,NNE,28,3.0,7.0,65,0.00,,,0.00,Wunderground v.1.15,2013-07-01 14:22:00,
2013-07-01 09:23:00,69.3,56.6,30.05,NNE,33,3.0,7.0,64,0.00,,,0.00,Wunderground v.1.15,2013-07-01 14:23:00,
2013-07-01 09:24:00,69.4,56.7,30.05,NE,40,3.0,7.0,64,0.00,,,0.00,Wunderground v.1.15,2013-07-01 14:24:00,
2013-07-01 09:28:00,69.5,56.3,30.05,ENE,68,4.0,8.0,63,0.00,,,0.00,Wunderground v.1.15,2013-07-01 14:28:00,
2013-07-01 09:31:00,69.6,56.9,30.05,ENE,68,5.0,9.0,64,0.00,,,0.00,Wunderground v.1.15,2013-07-01 14:31:00,
2013-07-01 09:32:00,69.7,56.5,30.05,North,5,5.0,12.0,63,0.00,,,0.00,Wunderground v.1.15,2013-07-01 14:32:00,
2013-07-01 09:33:00,69.7,55.6,30.05,NNE,19,5.0,12.0,61,0.00,,,0.00,Wunderground v.1.15,2013-07-01 14:33:00,
2013-07-01 09:34:00,69.7,56.5,30.05,NE,40,5.0,12.0,63,0.00,,,0.00,Wunderground v.1.15,2013-07-01 14:34:00,
2013-07-01 09:35:00,69.7,56.1,30.05,East,88,6.0,12.0,62,0.00,,,0.00,Wunderground v.1.15,2013-07-01 14:35:00,
2013-07-01 09:37:00,69.8,55.7,30.05,NE,56,5.0,12.0,61,0.00,,,0.00,Wunderground v.1.15,2013-07-01 14:37:00,
2013-07-01 09:39:00,69.9,56.3,30.04,NE,38,5.0,12.0,62,0.00,,,0.00,Wunderground v.1.15,2013-07-01 14:39:00,
2013-07-01 09:40:00,69.9,57.2,30.05,NE,51,5.0,5.0,64,0.00,,,0.00,Wunderground v.1.15,2013-07-01 14:40:00,
2013-07-01 09:42:00,70.0,55.9,30.05,ENE,57,5.0,6.0,61,0.00,,,0.00,Wunderground v.1.15,2013-07-01 14:42:00,
2013-07-01 09:44:00,70.2,56.6,30.05,ENE,63,4.0,6.0,62,0.00,,,0.00,Wunderground v.1.15,2013-07-01 14:44:00,
2013-07-01 09:45:00,70.3,56.7,30.05,NE,53,4.0,6.0,62,0.00,,,0.00,Wunderground v.1.15,2013-07-01 14:45:00,
2013-07-01 09:47:00,70.5,57.3,30.05,ENE,67,4.0,6.0,63,0.00,,,0.00,Wunderground v.1.15,2013-07-01 14:47:00,
2013-07-01 09:48:00,70.6,56.5,30.05,NE,34,4.0,7.0,61,0.00,,,0.00,Wunderground v.1.15,2013-07-01 14:48:00,
2013-07-01 09:53:00,71.0,55.9,30.05,NNE,22,4.0,7.0,59,0.00,,,0.00,Wunderground v.1.15,2013-07-01 14:53:00,
2013-07-01 09:54:00,71.0,55.5,30.05,NE,45,4.0,7.0,58,0.00,,,0.00,Wunderground v.1.15,2013-07-01 14:54:00,
2013-07-01 09:56:00,71.2,56.6,30.05,NE,51,4.0,7.0,60,0.00,,,0.00,Wunderground v.1.15,2013-07-01 14:56:00,
2013-07-01 09:57:00,71.2,56.6,30.05,NE,45,4.0,7.0,60,0.00,,,0.00,Wunderground v.1.15,2013-07-01 14:57:00,
2013-07-01 09:58:00,71.3,57.6,30.05,NE,43,4.0,7.0,62,0.00,,,0.00,Wunderground v.1.15,2013-07-01 14:58:00,
2013-07-01 09:59:00,71.4,56.3,30.05,ENE,57,3.0,7.0,59,0.00,,,0.00,Wunderground v.1.15,2013-07-01 14:59:00,
2013-07-01 10:02:00,71.7,55.7,30.05,NNE,24,3.0,10.0,57,0.00,,,0.00,Wunderground v.1.15,2013-07-01 15:02:00,
2013-07-01 10:03:00,71.7,55.2,30.05,NNE,29,3.0,10.0,56,0.00,,,0.00,Wunderground v.1.15,2013-07-01 15:03:00,
2013-07-01 10:05:00,71.7,55.7,30.04,East,83,4.0,10.0,57,0.00,,,0.00,Wunderground v.1.15,2013-07-01 15:05:00,
2013-07-01 10:07:00,71.7,55.2,30.04,ENE,62,5.0,10.0,56,0.00,,,0.00,Wunderground v.1.15,2013-07-01 15:07:00,
2013-07-01 10:09:00,71.8,56.2,30.04,NNE,27,5.0,10.0,58,0.00,,,0.00,Wunderground v.1.15,2013-07-01 15:09:00,
2013-07-01 10:11:00,71.9,54.9,30.04,NE,49,5.0,10.0,55,0.00,,,0.00,Wunderground v.1.15,2013-07-01 15:11:00,
2013-07-01 10:14:00,72.0,54.9,30.04,NE,51,5.0,10.0,55,0.00,,,0.00,Wunderground v.1.15,2013-07-01 15:14:00,
2013-07-01 10:15:00,72.1,55.0,30.04,NE,51,5.0,10.0,55,0.00,,,0.00,Wunderground v.1.15,2013-07-01 15:15:00,
2013-07-01 10:16:00,72.1,55.0,30.04,ENE,70,5.0,10.0,55,0.00,,,0.00,Wunderground v.1.15,2013-07-01 15:16:00,
2013-07-01 10:18:00,72.2,56.1,30.05,ENE,60,5.0,10.0,57,0.00,,,0.00,Wunderground v.1.15,2013-07-01 15:18:00,
2013-07-01 10:21:00,72.4,55.8,30.04,ESE,111,5.0,6.0,56,0.00,,,0.00,Wunderground v.1.15,2013-07-01 15:21:00,
2013-07-01 10:23:00,72.5,54.9,30.04,NNE,27,4.0,6.0,54,0.00,,,0.00,Wunderground v.1.15,2013-07-01 15:23:00,
2013-07-01 10:24:00,72.5,55.4,30.04,ENE,59,4.0,7.0,55,0.00,,,0.00,Wunderground v.1.15,2013-07-01 15:24:00,
2013-07-01 10:27:00,72.6,54.5,30.04,NE,42,5.0,7.0,53,0.00,,,0.00,Wunderground v.1.15,2013-07-01 15:27:00,
2013-07-01 10:29:00,72.6,55.5,30.04,NE,47,5.0,7.0,55,0.00,,,0.00,Wunderground v.1.15,2013-07-01 15:29:00,
2013-07-01 10:30:00,72.7,56.6,30.05,NE,47,5.0,5.0,57,0.00,,,0.00,Wunderground v.1.15,2013-07-01 15:30:00,
2013-07-01 10:33:00,72.8,55.2,30.04,NE,35,5.0,8.0,54,0.00,,,0.00,Wunderground v.1.15,2013-07-01 15:33:00,
2013-07-01 10:34:00,72.9,55.3,30.04,NE,46,5.0,8.0,54,0.00,,,0.00,Wunderground v.1.15,2013-07-01 15:34:00,
2013-07-01 10:36:00,73.0,57.8,30.04,NE,37,5.0,8.0,59,0.00,,,0.00,Wunderground v.1.15,2013-07-01 15:36:00,
2013-07-01 10:37:00,73.1,57.0,30.04,North,349,4.0,8.0,57,0.00,,,0.00,Wunderground v.1.15,2013-07-01 15:37:00,
2013-07-01 10:38:00,73.1,57.0,30.04,NNE,15,4.0,8.0,57,0.00,,,0.00,Wunderground v.1.15,2013-07-01 15:38:00,
2013-07-01 10:40:00,73.2,55.0,30.04,NE,42,4.0,5.0,53,0.00,,,0.00,Wunderground v.1.15,2013-07-01 15:40:00,
2013-07-01 10:42:00,73.2,55.6,30.04,ENE,73,5.0,10.0,54,0.00,,,0.00,Wunderground v.1.15,2013-07-01 15:42:00,
2013-07-01 10:43:00,73.2,55.6,30.04,NNE,25,5.0,10.0,54,0.00,,,0.00,Wunderground v.1.15,2013-07-01 15:43:00,
2013-07-01 10:45:00,73.3,56.2,30.04,NE,37,5.0,10.0,55,0.00,,,0.00,Wunderground v.1.15,2013-07-01 15:45:00,
2013-07-01 10:46:00,73.3,55.1,30.04,NE,51,5.0,10.0,53,0.00,,,0.00,Wunderground v.1.15,2013-07-01 15:46:00,
2013-07-01 10:50:00,73.4,55.7,30.04,ENE,75,5.0,5.0,54,0.00,,,0.00,Wunderground v.1.15,2013-07-01 15:50:00,
2013-07-01 10:52:00,73.5,56.3,30.04,NNE,24,5.0,6.0,55,0.00,,,0.00,Wunderground v.1.15,2013-07-01 15:52:00,
2013-07-01 10:53:00,73.5,56.8,30.04,NNW,339,5.0,6.0,56,0.00,,,0.00,Wunderground v.1.15,2013-07-01 15:53:00,
2013-07-01 10:57:00,73.6,56.4,30.04,NNE,16,5.0,11.0,55,0.00,,,0.00,Wunderground v.1.15,2013-07-01 15:57:00,
2013-07-01 10:58:00,73.6,55.9,30.04,North,360,5.0,11.0,54,0.00,,,0.00,Wunderground v.1.15,2013-07-01 15:58:00,
2013-07-01 11:00:00,73.7,56.5,30.03,NE,44,5.0,5.0,55,0.00,,,0.00,Wunderground v.1.15,2013-07-01 16:00:00,
2013-07-01 11:01:00,73.7,57.5,30.03,NNE,20,5.0,5.0,57,0.00,,,0.00,Wunderground v.1.15,2013-07-01 16:01:00,
2013-07-01 11:03:00,73.8,57.6,30.04,ENE,67,5.0,5.0,57,0.00,,,0.00,Wunderground v.1.15,2013-07-01 16:03:00,
2013-07-01 11:04:00,73.8,57.1,30.04,NE,56,5.0,5.0,56,0.00,,,0.00,Wunderground v.1.15,2013-07-01 16:04:00,
2013-07-01 11:06:00,74.0,57.8,30.04,NNW,331,5.0,5.0,57,0.00,,,0.00,Wunderground v.1.15,2013-07-01 16:06:00,
2013-07-01 11:09:00,74.2,58.9,30.03,NNE,26,4.0,9.0,59,0.00,,,0.00,Wunderground v.1.15,2013-07-01 16:09:00,
2013-07-01 11:10:00,74.2,58.5,30.03,North,360,4.0,4.0,58,0.00,,,0.00,Wunderground v.1.15,2013-07-01 16:10:00,
2013-07-01 11:12:00,74.4,56.7,30.03,NNE,14,4.0,4.0,54,0.00,,,0.00,Wunderground v.1.15,2013-07-01 16:12:00,
2013-07-01 11:15:00,74.4,56.2,30.03,NNE,22,5.0,6.0,53,0.00,,,0.00,Wunderground v.1.15,2013-07-01 16:15:00,
2013-07-01 11:16:00,74.5,57.8,30.03,ENE,59,4.0,6.0,56,0.00,,,0.00,Wunderground v.1.15,2013-07-01 16:16:00,
2013-07-01 11:17:00,74.5,56.8,30.03,NNE,33,5.0,6.0,54,0.00,,,0.00,Wunderground v.1.15,2013-07-01 16:17:00,
2013-07-01 11:22:00,74.5,55.7,30.03,NNE,15,6.0,7.0,52,0.00,,,0.00,Wunderground v.1.15,2013-07-01 16:22:00,
2013-07-01 11:23:00,74.6,56.9,30.03,ENE,78,5.0,7.0,54,0.00,,,0.00,Wunderground v.1.15,2013-07-01 16:23:00,
2013-07-01 11:25:00,74.7,56.4,30.03,NNE,23,6.0,9.0,53,0.00,,,0.00,Wunderground v.1.15,2013-07-01 16:25:00,
2013-07-01 11:29:00,74.7,56.9,30.03,NE,47,6.0,9.0,54,0.00,,,0.00,Wunderground v.1.15,2013-07-01 16:29:00,
2013-07-01 11:30:00,74.7,56.9,30.03,ENE,65,6.0,6.0,54,0.00,,,0.00,Wunderground v.1.15,2013-07-01 16:30:00,
2013-07-01 11:31:00,74.7,56.4,30.03,NE,37,6.0,6.0,53,0.00,,,0.00,Wunderground v.1.15,2013-07-01 16:31:00,
2013-07-01 11:33:00,74.7,56.4,30.03,NNE,27,6.0,7.0,53,0.00,,,0.00,Wunderground v.1.15,2013-07-01 16:33:00,
2013-07-01 11:38:00,74.8,57.5,30.03,NNW,331,5.0,7.0,55,0.00,,,0.00,Wunderground v.1.15,2013-07-01 16:38:00,
2013-07-01 11:39:00,74.8,56.5,30.03,ENE,61,6.0,8.0,53,0.00,,,0.00,Wunderground v.1.15,2013-07-01 16:39:00,
2013-07-01 11:45:00,74.9,55.6,30.03,East,85,6.0,12.0,51,0.00,,,0.00,Wunderground v.1.15,2013-07-01 16:45:00,
2013-07-01 11:47:00,74.9,55.6,30.03,NNE,30,6.0,12.0,51,0.00,,,0.00,Wunderground v.1.15,2013-07-01 16:47:00,
2013-07-01 11:49:00,75.0,55.6,30.03,ENE,71,7.0,12.0,51,0.00,,,0.00,Wunderground v.1.15,2013-07-01 16:49:00,
2013-07-01 11:50:00,75.0,56.2,30.03,ENE,76,6.0,6.0,52,0.00,,,0.00,Wunderground v.1.15,2013-07-01 16:50:00,
2013-07-01 11:51:00,75.1,56.3,30.03,NE,44,6.0,6.0,52,0.00,,,0.00,Wunderground v.1.15,2013-07-01 16:51:00,
2013-07-01 11:53:00,75.1,57.8,30.02,NNE,26,5.0,8.0,55,0.00,,,0.00,Wunderground v.1.15,2013-07-01 16:53:00,
2013-07-01 11:55:00,75.2,57.4,30.03,ENE,62,5.0,8.0,54,0.00,,,0.00,Wunderground v.1.15,2013-07-01 16:55:00,
2013-07-01 11:57:00,75.3,58.0,30.02,NNE,24,5.0,8.0,55,0.00,,,0.00,Wunderground v.1.15,2013-07-01 16:57:00,
2013-07-01 11:58:00,75.3,55.4,30.03,NE,42,5.0,8.0,50,0.00,,,0.00,Wunderground v.1.15,2013-07-01 16:58:00,
2013-07-01 11:59:00,75.3,55.9,30.02,NE,41,6.0,8.0,51,0.00,,,0.00,Wunderground v.1.15,2013-07-01 16:59:00,
2013-07-01 12:00:00,75.3,55.9,30.03,ESE,102,6.0,6.0,51,0.00,,,0.00,Wunderground v.1.15,2013-07-01 17:00:00,
2013-07-01 12:04:00,75.3,56.5,30.03,North,9,6.0,9.0,52,0.00,,,0.00,Wunderground v.1.15,2013-07-01 17:04:00,
2013-07-01 12:05:00,75.4,57.6,30.02,NNE,19,6.0,9.0,54,0.00,,,0.00,Wunderground v.1.15,2013-07-01 17:05:00,
2013-07-01 12:08:00,75.5,58.2,30.02,ESE,107,5.0,9.0,55,0.00,,,0.00,Wunderground v.1.15,2013-07-01 17:08:00,
2013-07-01 12:10:00,75.7,58.4,30.02,NNW,331,4.0,10.0,55,0.00,,,0.00,Wunderground v.1.15,2013-07-01 17:10:00,
2013-07-01 12:11:00,75.7,58.4,30.02,NNW,342,4.0,10.0,55,0.00,,,0.00,Wunderground v.1.15,2013-07-01 17:11:00,
2013-07-01 12:14:00,75.8,58.5,30.02,NE,56,4.0,10.0,55,0.00,,,0.00,Wunderground v.1.15,2013-07-01 17:14:00,
2013-07-01 12:15:00,75.8,58.0,30.02,North,355,5.0,10.0,54,0.00,,,0.00,Wunderground v.1.15,2013-07-01 17:15:00,
2013-07-01 12:16:00,75.8,57.4,30.02,ENE,57,5.0,10.0,53,0.00,,,0.00,Wunderground v.1.15,2013-07-01 17:16:00,
2013-07-01 12:17:00,75.8,57.4,30.02,NE,50,5.0,10.0,53,0.00,,,0.00,Wunderground v.1.15,2013-07-01 17:17:00,
2013-07-01 12:21:00,75.9,58.6,30.02,NW,326,6.0,6.0,55,0.00,,,0.00,Wunderground v.1.15,2013-07-01 17:21:00,
2013-07-01 12:22:00,75.9,60.5,30.02,NNE,22,6.0,6.0,59,0.00,,,0.00,Wunderground v.1.15,2013-07-01 17:22:00,
2013-07-01 12:23:00,75.9,58.6,30.03,NE,44,6.0,6.0,55,0.00,,,0.00,Wunderground v.1.15,2013-07-01 17:23:00,
2013-07-01 12:24:00,75.9,59.6,30.03,NE,40,6.0,14.0,57,0.00,,,0.00,Wunderground v.1.15,2013-07-01 17:24:00,
2013-07-01 12:27:00,76.0,59.2,30.02,NE,41,5.0,14.0,56,0.00,,,0.00,Wunderground v.1.15,2013-07-01 17:27:00,
2013-07-01 12:28:00,76.0,59.2,30.02,NE,51,5.0,14.0,56,0.00,,,0.00,Wunderground v.1.15,2013-07-01 17:28:00,
2013-07-01 12:29:00,76.1,59.3,30.02,East,80,5.0,14.0,56,0.00,,,0.00,Wunderground v.1.15,2013-07-01 17:29:00,
2013-07-01 12:30:00,76.1,57.7,30.02,NE,38,5.0,5.0,53,0.00,,,0.00,Wunderground v.1.15,2013-07-01 17:30:00,
2013-07-01 12:34:00,76.2,59.9,30.02,NE,35,5.0,6.0,57,0.00,,,0.00,Wunderground v.1.15,2013-07-01 17:34:00,
2013-07-01 12:35:00,76.3,57.4,30.02,NE,55,4.0,11.0,52,0.00,,,0.00,Wunderground v.1.15,2013-07-01 17:35:00,
2013-07-01 12:36:00,76.3,57.9,30.02,NE,51,5.0,11.0,53,0.00,,,0.00,Wunderground v.1.15,2013-07-01 17:36:00,
2013-07-01 12:39:00,76.3,58.4,30.03,NE,49,5.0,11.0,54,0.00,,,0.00,Wunderground v.1.15,2013-07-01 17:39:00,
2013-07-01 12:40:00,76.3,58.9,30.03,ENE,65,5.0,5.0,55,0.00,,,0.00,Wunderground v.1.15,2013-07-01 17:40:00,
2013-07-01 12:41:00,76.4,59.5,30.02,NE,53,5.0,7.0,56,0.00,,,0.00,Wunderground v.1.15,2013-07-01 17:41:00,
2013-07-01 12:44:00,76.5,60.6,30.03,NNE,30,5.0,7.0,58,0.00,,,0.00,Wunderground v.1.15,2013-07-01 17:44:00,
2013-07-01 12:46:00,76.6,57.7,30.03,NE,53,5.0,9.0,52,0.00,,,0.00,Wunderground v.1.15,2013-07-01 17:46:00,
2013-07-01 12:47:00,76.6,57.7,30.02,NE,51,5.0,10.0,52,0.00,,,0.00,Wunderground v.1.15,2013-07-01 17:47:00,
2013-07-01 12:51:00,76.6,57.1,30.03,NNE,30,5.0,5.0,51,0.00,,,0.00,Wunderground v.1.15,2013-07-01 17:51:00,
2013-07-01 12:52:00,76.6,57.1,30.03,ENE,61,5.0,5.0,51,0.00,,,0.00,Wunderground v.1.15,2013-07-01 17:52:00,
2013-07-01 12:53:00,76.6,57.1,30.03,NE,39,6.0,6.0,51,0.00,,,0.00,Wunderground v.1.15,2013-07-01 17:53:00,
2013-07-01 12:55:00,76.5,56.5,30.03,East,90,6.0,12.0,50,0.00,,,0.00,Wunderground v.1.15,2013-07-01 17:55:00,
2013-07-01 12:58:00,76.5,55.3,30.03,NE,36,6.0,12.0,48,0.00,,,0.00,Wunderground v.1.15,2013-07-01 17:58:00,
2013-07-01 12:59:00,76.5,54.2,30.03,ENE,73,6.0,12.0,46,0.00,,,0.00,Wunderground v.1.15,2013-07-01 17:59:00,
2013-07-01 13:02:00,76.4,55.3,30.03,NNE,22,7.0,11.0,48,0.00,,,0.00,Wunderground v.1.15,2013-07-01 18:02:00,
2013-07-01 13:03:00,76.3,54.6,30.03,ENE,74,7.0,11.0,47,0.00,,,0.00,Wunderground v.1.15,2013-07-01 18:03:00,
2013-07-01 13:04:00,76.3,54.0,30.03,ENE,61,7.0,11.0,46,0.00,,,0.00,Wunderground v.1.15,2013-07-01 18:04:00,
2013-07-01 13:07:00,76.2,53.9,30.03,NE,56,7.0,12.0,46,0.00,,,0.00,Wunderground v.1.15,2013-07-01 18:07:00,
2013-07-01 13:08:00,76.2,53.3,30.03,NE,47,8.0,12.0,45,0.00,,,0.00,Wunderground v.1.15,2013-07-01 18:08:00,
2013-07-01 13:09:00,76.2,53.9,30.03,NE,47,8.0,13.0,46,0.00,,,0.00,Wunderground v.1.15,2013-07-01 18:09:00,
2013-07-01 13:12:00,76.2,54.5,30.03,NE,42,7.0,11.0,47,0.00,,,0.00,Wunderground v.1.15,2013-07-01 18:12:00,
2013-07-01 13:15:00,76.2,54.5,30.03,NNW,345,7.0,11.0,47,0.00,,,0.00,Wunderground v.1.15,2013-07-01 18:15:00,
2013-07-01 13:16:00,76.3,56.3,30.03,NE,46,7.0,11.0,50,0.00,,,0.00,Wunderground v.1.15,2013-07-01 18:16:00,
2013-07-01 13:17:00,76.3,56.3,30.03,NNE,32,6.0,11.0,50,0.00,,,0.00,Wunderground v.1.15,2013-07-01 18:17:00,
2013-07-01 13:19:00,76.3,54.6,30.03,NE,36,6.0,11.0,47,0.00,,,0.00,Wunderground v.1.15,2013-07-01 18:19:00,
2013-07-01 13:20:00,76.3,55.7,30.03,North,9,5.0,5.0,49,0.00,,,0.00,Wunderground v.1.15,2013-07-01 18:20:00,
2013-07-01 13:21:00,76.3,57.4,30.03,NNE,14,5.0,6.0,52,0.00,,,0.00,Wunderground v.1.15,2013-07-01 18:21:00,
2013-07-01 13:22:00,76.3,57.4,30.03,NNE,17,5.0,6.0,52,0.00,,,0.00,Wunderground v.1.15,2013-07-01 18:22:00,
2013-07-01 13:24:00,76.4,58.0,30.03,NNW,328,5.0,10.0,53,0.00,,,0.00,Wunderground v.1.15,2013-07-01 18:24:00,
2013-07-01 13:26:00,76.5,54.8,30.03,NE,34,5.0,10.0,47,0.00,,,0.00,Wunderground v.1.15,2013-07-01 18:26:00,
2013-07-01 13:28:00,76.6,54.3,30.03,NE,51,6.0,12.0,46,0.00,,,0.00,Wunderground v.1.15,2013-07-01 18:28:00,
2013-07-01 13:29:00,76.6,54.9,30.03,NE,38,6.0,12.0,47,0.00,,,0.00,Wunderground v.1.15,2013-07-01 18:29:00,
2013-07-01 13:34:00,76.7,55.0,30.03,NNE,16,6.0,6.0,47,0.00,,,0.00,Wunderground v.1.15,2013-07-01 18:34:00,
2013-07-01 13:35:00,76.8,55.6,30.03,NNE,15,5.0,6.0,48,0.00,,,0.00,Wunderground v.1.15,2013-07-01 18:35:00,
2013-07-01 13:36:00,76.9,57.9,30.03,ESE,115,5.0,6.0,52,0.00,,,0.00,Wunderground v.1.15,2013-07-01 18:36:00,
2013-07-01 13:40:00,77.1,56.5,30.03,ENE,75,4.0,10.0,49,0.00,,,0.00,Wunderground v.1.15,2013-07-01 18:40:00,
2013-07-01 13:42:00,77.2,56.0,30.03,ENE,76,4.0,10.0,48,0.00,,,0.00,Wunderground v.1.15,2013-07-01 18:42:00,
2013-07-01 13:43:00,77.2,56.0,30.03,NE,51,4.0,10.0,48,0.00,,,0.00,Wunderground v.1.15,2013-07-01 18:43:00,
2013-07-01 13:44:00,77.2,54.2,30.03,East,88,4.0,10.0,45,0.00,,,0.00,Wunderground v.1.15,2013-07-01 18:44:00,
2013-07-01 13:47:00,77.1,52.9,30.03,NE,42,5.0,10.0,43,0.00,,,0.00,Wunderground v.1.15,2013-07-01 18:47:00,
2013-07-01 13:48:00,77.1,53.5,30.03,NE,51,5.0,10.0,44,0.00,,,0.00,Wunderground v.1.15,2013-07-01 18:48:00,
2013-07-01 13:49:00,77.1,52.9,30.03,NNE,26,5.0,10.0,43,0.00,,,0.00,Wunderground v.1.15,2013-07-01 18:49:00,
2013-07-01 13:50:00,77.1,55.3,30.03,NE,51,5.0,15.0,47,0.00,,,0.00,Wunderground v.1.15,2013-07-01 18:50:00,
2013-07-01 13:53:00,77.1,54.7,30.03,East,91,5.0,15.0,46,0.00,,,0.00,Wunderground v.1.15,2013-07-01 18:53:00,
2013-07-01 13:54:00,77.1,54.1,30.03,ENE,65,5.0,15.0,45,0.00,,,0.00,Wunderground v.1.15,2013-07-01 18:54:00,
2013-07-01 13:55:00,77.1,55.3,30.03,East,92,6.0,15.0,47,0.00,,,0.00,Wunderground v.1.15,2013-07-01 18:55:00,
2013-07-01 13:56:00,77.1,54.7,30.03,East,86,5.0,15.0,46,0.00,,,0.00,Wunderground v.1.15,2013-07-01 18:56:00,
2013-07-01 13:58:00,77.2,54.8,30.03,ESE,103,5.0,15.0,46,0.00,,,0.00,Wunderground v.1.15,2013-07-01 18:58:00,
2013-07-01 13:59:00,77.2,56.0,30.03,ENE,62,5.0,15.0,48,0.00,,,0.00,Wunderground v.1.15,2013-07-01 18:59:00,
2013-07-01 14:01:00,77.3,54.9,30.03,NE,35,4.0,4.0,46,0.00,,,0.00,Wunderground v.1.15,2013-07-01 19:01:00,
2013-07-01 14:03:00,77.3,55.5,30.03,NNW,346,4.0,4.0,47,0.00,,,0.00,Wunderground v.1.15,2013-07-01 19:03:00,
2013-07-01 14:08:00,77.5,56.3,30.03,East,91,4.0,7.0,48,0.00,,,0.00,Wunderground v.1.15,2013-07-01 19:08:00,
2013-07-01 14:09:00,77.5,56.8,30.03,North,10,4.0,7.0,49,0.00,,,0.00,Wunderground v.1.15,2013-07-01 19:09:00,
2013-07-01 14:10:00,77.5,57.4,30.03,ENE,59,4.0,16.0,50,0.00,,,0.00,Wunderground v.1.15,2013-07-01 19:10:00,
2013-07-01 14:11:00,77.5,55.1,30.03,NE,51,5.0,16.0,46,0.00,,,0.00,Wunderground v.1.15,2013-07-01 19:11:00,
2013-07-01 14:13:00,77.4,55.6,30.03,NNE,17,5.0,16.0,47,0.00,,,0.00,Wunderground v.1.15,2013-07-01 19:13:00,
2013-07-01 14:16:00,77.4,56.2,30.03,ENE,70,6.0,16.0,48,0.00,,,0.00,Wunderground v.1.15,2013-07-01 19:16:00,
2013-07-01 14:17:00,77.4,57.3,30.03,ENE,72,5.0,16.0,50,0.00,,,0.00,Wunderground v.1.15,2013-07-01 19:17:00,
2013-07-01 14:18:00,77.4,57.3,30.03,ESE,121,5.0,16.0,50,0.00,,,0.00,Wunderground v.1.15,2013-07-01 19:18:00,
2013-07-01 14:20:00,77.4,54.4,30.03,NNE,31,5.0,9.0,45,0.00,,,0.00,Wunderground v.1.15,2013-07-01 19:20:00,
2013-07-01 14:22:00,77.4,52.5,30.03,NE,55,6.0,9.0,42,0.00,,,0.00,Wunderground v.1.15,2013-07-01 19:22:00,
2013-07-01 14:25:00,77.3,53.7,30.03,ENE,75,6.0,10.0,44,0.00,,,0.00,Wunderground v.1.15,2013-07-01 19:25:00,
2013-07-01 14:27:00,77.3,53.1,30.03,NE,47,6.0,10.0,43,0.00,,,0.00,Wunderground v.1.15,2013-07-01 19:27:00,
2013-07-01 14:28:00,77.4,53.8,30.03,East,83,6.0,10.0,44,0.00,,,0.00,Wunderground v.1.15,2013-07-01 19:28:00,
2013-07-01 14:29:00,77.4,55.0,30.03,NE,45,6.0,10.0,46,0.00,,,0.00,Wunderground v.1.15,2013-07-01 19:29:00,
2013-07-01 14:30:00,77.4,53.8,30.03,ENE,65,6.0,6.0,44,0.00,,,0.00,Wunderground v.1.15,2013-07-01 19:30:00,
2013-07-01 14:33:00,77.6,56.4,30.02,NE,46,4.0,9.0,48,0.00,,,0.00,Wunderground v.1.15,2013-07-01 19:33:00,
2013-07-01 14:35:00,77.6,54.0,30.03,ENE,59,4.0,9.0,44,0.00,,,0.00,Wunderground v.1.15,2013-07-01 19:35:00,
2013-07-01 14:37:00,77.6,52.7,30.03,East,90,4.0,9.0,42,0.00,,,0.00,Wunderground v.1.15,2013-07-01 19:37:00,
2013-07-01 14:39:00,77.6,52.0,30.02,NE,44,5.0,11.0,41,0.00,,,0.00,Wunderground v.1.15,2013-07-01 19:39:00,
2013-07-01 14:41:00,77.5,51.3,30.02,ENE,77,5.0,5.0,40,0.00,,,0.00,Wunderground v.1.15,2013-07-01 19:41:00,
2013-07-01 14:46:00,77.6,55.2,30.03,NE,46,6.0,11.0,46,0.00,,,0.00,Wunderground v.1.15,2013-07-01 19:46:00,
2013-07-01 14:47:00,77.6,54.6,30.03,ENE,71,6.0,13.0,45,0.00,,,0.00,Wunderground v.1.15,2013-07-01 19:47:00,
2013-07-01 14:48:00,77.6,52.7,30.03,ENE,65,7.0,13.0,42,0.00,,,0.00,Wunderground v.1.15,2013-07-01 19:48:00,
2013-07-01 14:51:00,77.7,55.3,30.02,NNE,12,6.0,6.0,46,0.00,,,0.00,Wunderground v.1.15,2013-07-01 19:51:00,
2013-07-01 14:52:00,77.7,55.3,30.02,NNE,24,6.0,8.0,46,0.00,,,0.00,Wunderground v.1.15,2013-07-01 19:52:00,
2013-07-01 14:54:00,77.7,54.0,30.03,NE,56,7.0,12.0,44,0.00,,,0.00,Wunderground v.1.15,2013-07-01 19:54:00,
2013-07-01 14:55:00,77.6,53.3,30.02,NE,52,7.0,12.0,43,0.00,,,0.00,Wunderground v.1.15,2013-07-01 19:55:00,
2013-07-01 14:57:00,77.5,53.2,30.02,NNW,348,7.0,12.0,43,0.00,,,0.00,Wunderground v.1.15,2013-07-01 19:57:00,
2013-07-01 14:59:00,77.5,53.9,30.02,NE,51,7.0,12.0,44,0.00,,,0.00,Wunderground v.1.15,2013-07-01 19:59:00,
2013-07-01 15:00:00,77.5,54.5,30.02,NNE,25,7.0,7.0,45,0.00,,,0.00,Wunderground v.1.15,2013-07-01 20:00:00,
2013-07-01 15:04:00,77.5,54.5,30.02,NE,42,7.0,10.0,45,0.00,,,0.00,Wunderground v.1.15,2013-07-01 20:04:00,
2013-07-01 15:05:00,77.5,53.9,30.02,NE,55,7.0,10.0,44,0.00,,,0.00,Wunderground v.1.15,2013-07-01 20:05:00,
2013-07-01 15:06:00,77.5,54.5,30.02,NNW,344,7.0,10.0,45,0.00,,,0.00,Wunderground v.1.15,2013-07-01 20:06:00,
2013-07-01 15:07:00,77.5,54.5,30.02,NNE,31,7.0,10.0,45,0.00,,,0.00,Wunderground v.1.15,2013-07-01 20:07:00,
2013-07-01 15:09:00,77.5,53.9,30.02,ENE,59,7.0,10.0,44,0.00,,,0.00,Wunderground v.1.15,2013-07-01 20:09:00,
2013-07-01 15:12:00,77.5,53.9,30.02,ENE,78,7.0,14.0,44,0.00,,,0.00,Wunderground v.1.15,2013-07-01 20:12:00,
2013-07-01 15:14:00,77.5,55.7,30.02,NE,49,7.0,14.0,47,0.00,,,0.00,Wunderground v.1.15,2013-07-01 20:14:00,
2013-07-01 15:15:00,77.4,53.8,30.03,NE,42,8.0,14.0,44,0.00,,,0.00,Wunderground v.1.15,2013-07-01 20:15:00,
2013-07-01 15:18:00,77.5,54.5,30.02,North,5,7.0,14.0,45,0.00,,,0.00,Wunderground v.1.15,2013-07-01 20:18:00,
2013-07-01 15:20:00,77.5,53.9,30.02,NNE,21,7.0,7.0,44,0.00,,,0.00,Wunderground v.1.15,2013-07-01 20:20:00,
2013-07-01 15:24:00,77.6,54.0,30.02,ENE,71,7.0,14.0,44,0.00,,,0.00,Wunderground v.1.15,2013-07-01 20:24:00,
2013-07-01 15:25:00,77.6,54.6,30.02,NNE,29,7.0,14.0,45,0.00,,,0.00,Wunderground v.1.15,2013-07-01 20:25:00,
2013-07-01 15:26:00,77.6,55.2,30.02,ENE,60,7.0,14.0,46,0.00,,,0.00,Wunderground v.1.15,2013-07-01 20:26:00,
2013-07-01 15:27:00,77.6,55.2,30.02,ENE,63,7.0,14.0,46,0.00,,,0.00,Wunderground v.1.15,2013-07-01 20:27:00,
2013-07-01 15:30:00,77.6,54.6,30.02,NE,51,8.0,8.0,45,0.00,,,0.00,Wunderground v.1.15,2013-07-01 20:30:00,
2013-07-01 15:33:00,77.6,54.6,30.02,NE,54,8.0,8.0,45,0.00,,,0.00,Wunderground v.1.15,2013-07-01 20:33:00,
2013-07-01 15:35:00,77.6,55.2,30.02,ENE,57,7.0,9.0,46,0.00,,,0.00,Wunderground v.1.15,2013-07-01 20:35:00,
2013-07-01 15:36:00,77.6,55.2,30.02,ENE,69,7.0,9.0,46,0.00,,,0.00,Wunderground v.1.15,2013-07-01 20:36:00,
2013-07-01 15:38:00,77.7,55.9,30.03,ENE,59,7.0,9.0,47,0.00,,,0.00,Wunderground v.1.15,2013-07-01 20:38:00,
2013-07-01 15:43:00,77.8,54.1,30.03,ENE,64,5.0,16.0,44,0.00,,,0.00,Wunderground v.1.15,2013-07-01 20:43:00,
2013-07-01 15:44:00,77.9,54.8,30.02,NE,49,5.0,16.0,45,0.00,,,0.00,Wunderground v.1.15,2013-07-01 20:44:00,
2013-07-01 15:45:00,77.9,54.2,30.02,NE,55,5.0,16.0,44,0.00,,,0.00,Wunderground v.1.15,2013-07-01 20:45:00,
2013-07-01 15:46:00,77.9,55.5,30.02,ENE,67,5.0,16.0,46,0.00,,,0.00,Wunderground v.1.15,2013-07-01 20:46:00,
2013-07-01 15:50:00,78.0,56.1,30.02,NE,42,6.0,6.0,47,0.00,,,0.00,Wunderground v.1.15,2013-07-01 20:50:00,
2013-07-01 15:51:00,78.0,55.5,30.03,NNE,13,6.0,8.0,46,0.00,,,0.00,Wunderground v.1.15,2013-07-01 20:51:00,
2013-07-01 15:52:00,78.0,54.3,30.02,ENE,69,6.0,9.0,44,0.00,,,0.00,Wunderground v.1.15,2013-07-01 20:52:00,
2013-07-01 15:53:00,78.0,54.9,30.02,NNE,32,6.0,9.0,45,0.00,,,0.00,Wunderground v.1.15,2013-07-01 20:53:00,
2013-07-01 15:55:00,78.0,54.3,30.02,ENE,76,6.0,9.0,44,0.00,,,0.00,Wunderground v.1.15,2013-07-01 20:55:00,
2013-07-01 15:57:00,78.0,55.5,30.03,NE,56,6.0,9.0,46,0.00,,,0.00,Wunderground v.1.15,2013-07-01 20:57:00,
2013-07-01 15:58:00,78.0,54.3,30.03,NNE,32,6.0,10.0,44,0.00,,,0.00,Wunderground v.1.15,2013-07-01 20:58:00,
2013-07-01 16:01:00,78.0,55.5,30.03,NNE,31,6.0,7.0,46,0.00,,,0.00,Wunderground v.1.15,2013-07-01 21:01:00,
2013-07-01 16:04:00,78.0,54.3,30.02,NE,50,5.0,10.0,44,0.00,,,0.00,Wunderground v.1.15,2013-07-01 21:04:00,
2013-07-01 16:05:00,78.0,54.9,30.02,NE,37,5.0,14.0,45,0.00,,,0.00,Wunderground v.1.15,2013-07-01 21:05:00,
2013-07-01 16:07:00,78.0,54.9,30.02,NNE,14,6.0,14.0,45,0.00,,,0.00,Wunderground v.1.15,2013-07-01 21:07:00,
2013-07-01 16:08:00,78.0,54.9,30.02,NE,47,6.0,14.0,45,0.00,,,0.00,Wunderground v.1.15,2013-07-01 21:08:00,
2013-07-01 16:09:00,78.0,56.7,30.02,NE,46,6.0,14.0,48,0.00,,,0.00,Wunderground v.1.15,2013-07-01 21:09:00,
2013-07-01 16:14:00,78.1,57.4,30.02,ENE,68,5.0,9.0,49,0.00,,,0.00,Wunderground v.1.15,2013-07-01 21:14:00,
2013-07-01 16:16:00,78.2,56.3,30.02,ENE,65,4.0,9.0,47,0.00,,,0.00,Wunderground v.1.15,2013-07-01 21:16:00,
2013-07-01 16:18:00,78.3,55.8,30.02,ENE,65,5.0,11.0,46,0.00,,,0.00,Wunderground v.1.15,2013-07-01 21:18:00,
2013-07-01 16:19:00,78.3,54.0,30.02,ENE,57,6.0,14.0,43,0.00,,,0.00,Wunderground v.1.15,2013-07-01 21:19:00,
2013-07-01 16:20:00,78.2,53.9,30.02,NNE,31,6.0,6.0,43,0.00,,,0.00,Wunderground v.1.15,2013-07-01 21:20:00,
2013-07-01 16:22:00,78.1,55.6,30.02,East,81,6.0,11.0,46,0.00,,,0.00,Wunderground v.1.15,2013-07-01 21:22:00,
2013-07-01 16:23:00,78.0,54.3,30.03,NE,36,6.0,11.0,44,0.00,,,0.00,Wunderground v.1.15,2013-07-01 21:23:00,
2013-07-01 16:26:00,77.9,54.2,30.03,ENE,59,7.0,11.0,44,0.00,,,0.00,Wunderground v.1.15,2013-07-01 21:26:00,
2013-07-01 16:28:00,77.8,54.1,30.03,NNE,28,7.0,11.0,44,0.00,,,0.00,Wunderground v.1.15,2013-07-01 21:28:00,
2013-07-01 16:29:00,77.8,54.8,30.03,ENE,68,6.0,11.0,45,0.00,,,0.00,Wunderground v.1.15,2013-07-01 21:29:00,
2013-07-01 16:32:00,77.8,54.8,30.03,ENE,75,6.0,6.0,45,0.00,,,0.00,Wunderground v.1.15,2013-07-01 21:32:00,
2013-07-01 16:34:00,77.8,56.5,30.03,North,355,6.0,10.0,48,0.00,,,0.00,Wunderground v.1.15,2013-07-01 21:34:00,
2013-07-01 16:37:00,77.7,55.3,30.02,NNE,12,6.0,10.0,46,0.00,,,0.00,Wunderground v.1.15,2013-07-01 21:37:00,
2013-07-01 16:38:00,77.7,54.7,30.03,NNE,22,6.0,10.0,45,0.00,,,0.00,Wunderground v.1.15,2013-07-01 21:38:00,
2013-07-01 16:39:00,77.7,55.3,30.03,NNE,32,6.0,10.0,46,0.00,,,0.00,Wunderground v.1.15,2013-07-01 21:39:00,
2013-07-01 16:40:00,77.7,55.3,30.03,NNE,31,5.0,12.0,46,0.00,,,0.00,Wunderground v.1.15,2013-07-01 21:40:00,
2013-07-01 16:42:00,77.7,55.3,30.03,NE,53,6.0,12.0,46,0.00,,,0.00,Wunderground v.1.15,2013-07-01 21:42:00,
2013-07-01 16:45:00,77.8,54.8,30.03,NE,50,6.0,12.0,45,0.00,,,0.00,Wunderground v.1.15,2013-07-01 21:45:00,
2013-07-01 16:47:00,77.8,54.8,30.03,NNE,30,5.0,12.0,45,0.00,,,0.00,Wunderground v.1.15,2013-07-01 21:47:00,
2013-07-01 16:48:00,77.8,54.8,30.03,NE,53,5.0,12.0,45,0.00,,,0.00,Wunderground v.1.15,2013-07-01 21:48:00,
2013-07-01 16:50:00,77.9,54.2,30.03,NNE,30,5.0,5.0,44,0.00,,,0.00,Wunderground v.1.15,2013-07-01 21:50:00,
2013-07-01 16:52:00,78.0,56.1,30.03,NE,43,4.0,6.0,47,0.00,,,0.00,Wunderground v.1.15,2013-07-01 21:52:00,
2013-07-01 16:53:00,78.0,56.1,30.03,NE,51,4.0,8.0,47,0.00,,,0.00,Wunderground v.1.15,2013-07-01 21:53:00,
2013-07-01 16:54:00,78.1,53.8,30.03,ENE,63,4.0,9.0,43,0.00,,,0.00,Wunderground v.1.15,2013-07-01 21:54:00,
2013-07-01 16:56:00,78.0,53.7,30.03,East,86,5.0,12.0,43,0.00,,,0.00,Wunderground v.1.15,2013-07-01 21:56:00,
2013-07-01 16:59:00,78.1,55.6,30.03,NNE,28,5.0,12.0,46,0.00,,,0.00,Wunderground v.1.15,2013-07-01 21:59:00,
2013-07-01 17:01:00,78.0,53.0,30.03,NE,49,5.0,5.0,42,0.00,,,0.00,Wunderground v.1.15,2013-07-01 22:01:00,
2013-07-01 17:02:00,78.1,54.4,30.03,NNE,32,5.0,5.0,44,0.00,,,0.00,Wunderground v.1.15,2013-07-01 22:02:00,
2013-07-01 17:03:00,78.1,55.0,30.03,ESE,109,5.0,11.0,45,0.00,,,0.00,Wunderground v.1.15,2013-07-01 22:03:00,
2013-07-01 17:05:00,78.0,53.0,30.03,NNE,23,5.0,12.0,42,0.00,,,0.00,Wunderground v.1.15,2013-07-01 22:05:00,
2013-07-01 17:08:00,77.9,53.6,30.03,NNE,28,5.0,12.0,43,0.00,,,0.00,Wunderground v.1.15,2013-07-01 22:08:00,
2013-07-01 17:09:00,77.9,54.2,30.03,NNW,342,5.0,12.0,44,0.00,,,0.00,Wunderground v.1.15,2013-07-01 22:09:00,
2013-07-01 17:10:00,77.9,53.0,30.03,ENE,76,6.0,11.0,42,0.00,,,0.00,Wunderground v.1.15,2013-07-01 22:10:00,
2013-07-01 17:13:00,77.7,53.4,30.03,NE,47,6.0,11.0,43,0.00,,,0.00,Wunderground v.1.15,2013-07-01 22:13:00,
2013-07-01 17:15:00,77.7,53.4,30.03,NE,54,6.0,11.0,43,0.00,,,0.00,Wunderground v.1.15,2013-07-01 22:15:00,
2013-07-01 17:18:00,77.6,52.7,30.03,NE,48,6.0,12.0,42,0.00,,,0.00,Wunderground v.1.15,2013-07-01 22:18:00,
2013-07-01 17:19:00,77.6,53.3,30.03,NE,53,6.0,12.0,43,0.00,,,0.00,Wunderground v.1.15,2013-07-01 22:19:00,
2013-07-01 17:20:00,77.6,53.3,30.03,ENE,57,6.0,6.0,43,0.00,,,0.00,Wunderground v.1.15,2013-07-01 22:20:00,
2013-07-01 17:21:00,77.6,54.0,30.03,ENE,61,5.0,12.0,44,0.00,,,0.00,Wunderground v.1.15,2013-07-01 22:21:00,
2013-07-01 17:24:00,77.6,54.6,30.03,NE,44,5.0,12.0,45,0.00,,,0.00,Wunderground v.1.15,2013-07-01 22:24:00,
2013-07-01 17:25:00,77.6,54.6,30.03,NE,56,5.0,12.0,45,0.00,,,0.00,Wunderground v.1.15,2013-07-01 22:25:00,
2013-07-01 17:26:00,77.5,52.6,30.02,NE,36,5.0,12.0,42,0.00,,,0.00,Wunderground v.1.15,2013-07-01 22:26:00,
2013-07-01 17:27:00,77.6,53.3,30.02,NE,37,5.0,12.0,43,0.00,,,0.00,Wunderground v.1.15,2013-07-01 22:27:00,
2013-07-01 17:28:00,77.5,53.9,30.02,ENE,68,5.0,12.0,44,0.00,,,0.00,Wunderground v.1.15,2013-07-01 22:28:00,
2013-07-01 17:31:00,77.5,53.9,30.03,NE,39,6.0,6.0,44,0.00,,,0.00,Wunderground v.1.15,2013-07-01 22:31:00,
2013-07-01 17:33:00,77.4,53.8,30.02,North,5,5.0,6.0,44,0.00,,,0.00,Wunderground v.1.15,2013-07-01 22:33:00,
2013-07-01 17:35:00,77.3,53.1,30.02,NE,46,6.0,6.0,43,0.00,,,0.00,Wunderground v.1.15,2013-07-01 22:35:00,
2013-07-01 17:36:00,77.3,53.7,30.02,NE,36,6.0,6.0,44,0.00,,,0.00,Wunderground v.1.15,2013-07-01 22:36:00,
2013-07-01 17:38:00,77.3,54.3,30.02,ENE,57,6.0,6.0,45,0.00,,,0.00,Wunderground v.1.15,2013-07-01 22:38:00,
2013-07-01 17:39:00,77.3,53.7,30.02,NNE,21,6.0,6.0,44,0.00,,,0.00,Wunderground v.1.15,2013-07-01 22:39:00,
2013-07-01 17:40:00,77.3,54.3,30.02,NNE,20,6.0,6.0,45,0.00,,,0.00,Wunderground v.1.15,2013-07-01 22:40:00,
2013-07-01 17:43:00,77.3,53.7,30.02,ENE,61,5.0,6.0,44,0.00,,,0.00,Wunderground v.1.15,2013-07-01 22:43:00,
2013-07-01 17:46:00,77.4,54.4,30.02,NE,40,4.0,6.0,45,0.00,,,0.00,Wunderground v.1.15,2013-07-01 22:46:00,
2013-07-01 17:47:00,77.4,54.4,30.02,NE,38,4.0,6.0,45,0.00,,,0.00,Wunderground v.1.15,2013-07-01 22:47:00,
2013-07-01 17:49:00,77.3,53.1,30.02,North,350,4.0,6.0,43,0.00,,,0.00,Wunderground v.1.15,2013-07-01 22:49:00,
2013-07-01 17:50:00,77.3,53.1,30.02,NE,53,4.0,11.0,43,0.00,,,0.00,Wunderground v.1.15,2013-07-01 22:50:00,
2013-07-01 17:53:00,77.2,54.2,30.02,NE,34,5.0,11.0,45,0.00,,,0.00,Wunderground v.1.15,2013-07-01 22:53:00,
2013-07-01 17:54:00,77.2,53.6,30.02,NE,55,5.0,11.0,44,0.00,,,0.00,Wunderground v.1.15,2013-07-01 22:54:00,
2013-07-01 17:59:00,77.0,53.4,30.02,East,86,6.0,11.0,44,0.00,,,0.00,Wunderground v.1.15,2013-07-01 22:59:00,
2013-07-01 18:00:00,77.0,53.4,30.02,East,86,6.0,6.0,44,0.00,,,0.00,Wunderground v.1.15,2013-07-01 23:00:00,
2013-07-01 18:01:00,77.0,54.6,30.02,NNE,24,6.0,6.0,46,0.00,,,0.00,Wunderground v.1.15,2013-07-01 23:01:00,
2013-07-01 18:02:00,77.0,54.6,30.02,NNE,24,5.0,6.0,46,0.00,,,0.00,Wunderground v.1.15,2013-07-01 23:02:00,
2013-07-01 18:07:00,77.0,54.6,30.02,NE,55,4.0,6.0,46,0.00,,,0.00,Wunderground v.1.15,2013-07-01 23:07:00,
2013-07-01 18:09:00,77.0,54.6,30.03,NE,41,4.0,6.0,46,0.00,,,0.00,Wunderground v.1.15,2013-07-01 23:09:00,
2013-07-01 18:10:00,77.0,54.6,30.02,ENE,67,3.0,5.0,46,0.00,,,0.00,Wunderground v.1.15,2013-07-01 23:10:00,
2013-07-01 18:11:00,76.9,54.5,30.03,ENE,59,4.0,5.0,46,0.00,,,0.00,Wunderground v.1.15,2013-07-01 23:11:00,
2013-07-01 18:12:00,76.9,53.9,30.02,NE,47,4.0,5.0,45,0.00,,,0.00,Wunderground v.1.15,2013-07-01 23:12:00,
2013-07-01 18:16:00,76.8,54.5,30.03,East,84,5.0,6.0,46,0.00,,,0.00,Wunderground v.1.15,2013-07-01 23:16:00,
2013-07-01 18:17:00,76.7,55.0,30.02,East,84,4.0,6.0,47,0.00,,,0.00,Wunderground v.1.15,2013-07-01 23:17:00,
2013-07-01 18:21:00,76.7,54.4,30.03,East,80,4.0,4.0,46,0.00,,,0.00,Wunderground v.1.15,2013-07-01 23:21:00,
2013-07-01 18:22:00,76.7,54.4,30.03,East,80,4.0,4.0,46,0.00,,,0.00,Wunderground v.1.15,2013-07-01 23:22:00,
2013-07-01 18:23:00,76.7,53.8,30.03,NE,38,3.0,5.0,45,0.00,,,0.00,Wunderground v.1.15,2013-07-01 23:23:00,
2013-07-01 18:26:00,76.7,54.4,30.03,NNE,29,3.0,5.0,46,0.00,,,0.00,Wunderground v.1.15,2013-07-01 23:26:00,
2013-07-01 18:27:00,76.7,54.4,30.03,NE,36,4.0,5.0,46,0.00,,,0.00,Wunderground v.1.15,2013-07-01 23:27:00,
2013-07-01 18:29:00,76.6,54.3,30.03,NE,49,4.0,5.0,46,0.00,,,0.00,Wunderground v.1.15,2013-07-01 23:29:00,
2013-07-01 18:32:00,76.6,54.9,30.03,NE,46,3.0,3.0,47,0.00,,,0.00,Wunderground v.1.15,2013-07-01 23:32:00,
2013-07-01 18:33:00,76.6,54.3,30.03,ENE,66,3.0,5.0,46,0.00,,,0.00,Wunderground v.1.15,2013-07-01 23:33:00,
2013-07-01 18:34:00,76.6,54.3,30.03,ENE,66,3.0,5.0,46,0.00,,,0.00,Wunderground v.1.15,2013-07-01 23:34:00,
2013-07-01 18:35:00,76.6,54.9,30.03,ENE,63,3.0,5.0,47,0.00,,,0.00,Wunderground v.1.15,2013-07-01 23:35:00,
2013-07-01 18:36:00,76.6,54.9,30.03,NE,40,3.0,5.0,47,0.00,,,0.00,Wunderground v.1.15,2013-07-01 23:36:00,
2013-07-01 18:37:00,76.5,54.8,30.03,NE,40,3.0,5.0,47,0.00,,,0.00,Wunderground v.1.15,2013-07-01 23:37:00,
2013-07-01 18:40:00,76.4,55.3,30.03,ENE,59,3.0,5.0,48,0.00,,,0.00,Wunderground v.1.15,2013-07-01 23:40:00,
2013-07-01 18:42:00,76.4,54.7,30.03,ENE,59,3.0,5.0,47,0.00,,,0.00,Wunderground v.1.15,2013-07-01 23:42:00,
2013-07-01 18:44:00,76.4,55.3,30.03,ENE,59,2.0,5.0,48,0.00,,,0.00,Wunderground v.1.15,2013-07-01 23:44:00,
2013-07-01 18:45:00,76.4,54.7,30.03,ENE,75,2.0,5.0,47,0.00,,,0.00,Wunderground v.1.15,2013-07-01 23:45:00,
2013-07-01 18:47:00,76.4,54.7,30.03,ESE,103,2.0,6.0,47,0.00,,,0.00,Wunderground v.1.15,2013-07-01 23:47:00,
2013-07-01 18:51:00,76.2,54.5,30.03,ENE,70,2.0,4.0,47,0.00,,,0.00,Wunderground v.1.15,2013-07-01 23:51:00,
2013-07-01 18:52:00,76.1,55.0,30.03,ENE,70,2.0,4.0,48,0.00,,,0.00,Wunderground v.1.15,2013-07-01 23:52:00,
2013-07-01 18:53:00,76.1,55.0,30.03,NE,55,3.0,4.0,48,0.00,,,0.00,Wunderground v.1.15,2013-07-01 23:53:00,
2013-07-01 18:54:00,76.0,54.9,30.03,NE,53,3.0,4.0,48,0.00,,,0.00,Wunderground v.1.15,2013-07-01 23:54:00,
2013-07-01 18:58:00,75.9,55.4,30.03,NNE,32,3.0,4.0,49,0.00,,,0.00,Wunderground v.1.15,2013-07-01 23:58:00,
2013-07-01 18:59:00,75.9,55.4,30.03,NNE,32,3.0,4.0,49,0.00,,,0.00,Wunderground v.1.15,2013-07-01 23:59:00,
2013-07-01 19:03:00,75.8,54.7,30.03,NNE,32,2.0,2.0,48,0.00,,,0.00,Wunderground v.1.15,2013-07-02 00:03:00,
2013-07-01 19:04:00,75.8,55.8,30.03,NNE,32,2.0,2.0,50,0.00,,,0.00,Wunderground v.1.15,2013-07-02 00:04:00,
2013-07-01 19:05:00,75.7,55.2,30.03,NNE,17,2.0,2.0,49,0.00,,,0.00,Wunderground v.1.15,2013-07-02 00:05:00,
2013-07-01 19:06:00,75.6,55.1,30.03,NE,41,2.0,2.0,49,0.00,,,0.00,Wunderground v.1.15,2013-07-02 00:06:00,
2013-07-01 19:09:00,75.4,54.9,30.03,NNE,19,3.0,6.0,49,0.00,,,0.00,Wunderground v.1.15,2013-07-02 00:09:00,
2013-07-01 19:12:00,75.2,54.7,30.03,ENE,65,3.0,6.0,49,0.00,,,0.00,Wunderground v.1.15,2013-07-02 00:12:00,
2013-07-01 19:13:00,75.1,54.6,30.03,NE,45,3.0,6.0,49,0.00,,,0.00,Wunderground v.1.15,2013-07-02 00:13:00,
2013-07-01 19:14:00,75.1,54.6,30.03,NE,46,4.0,6.0,49,0.00,,,0.00,Wunderground v.1.15,2013-07-02 00:14:00,
2013-07-01 19:18:00,74.8,54.9,30.03,ENE,60,3.0,6.0,50,0.00,,,0.00,Wunderground v.1.15,2013-07-02 00:18:00,
2013-07-01 19:19:00,74.7,54.8,30.03,ENE,63,3.0,6.0,50,0.00,,,0.00,Wunderground v.1.15,2013-07-02 00:19:00,
2013-07-01 19:23:00,74.4,55.1,30.03,NE,53,2.0,5.0,51,0.00,,,0.00,Wunderground v.1.15,2013-07-02 00:23:00,
2013-07-01 19:25:00,74.3,55.0,30.03,NE,51,2.0,5.0,51,0.00,,,0.00,Wunderground v.1.15,2013-07-02 00:25:00,
2013-07-01 19:26:00,74.2,54.9,30.03,ENE,59,2.0,8.0,51,0.00,,,0.00,Wunderground v.1.15,2013-07-02 00:26:00,
2013-07-01 19:27:00,74.2,54.4,30.03,NE,56,3.0,8.0,50,0.00,,,0.00,Wunderground v.1.15,2013-07-02 00:27:00,
2013-07-01 19:28:00,74.1,54.8,30.03,NE,56,2.0,8.0,51,0.00,,,0.00,Wunderground v.1.15,2013-07-02 00:28:00,
2013-07-01 19:31:00,73.9,55.2,30.03,ENE,65,2.0,4.0,52,0.00,,,0.00,Wunderground v.1.15,2013-07-02 00:31:00,
2013-07-01 19:33:00,73.8,54.5,30.03,ENE,59,2.0,6.0,51,0.00,,,0.00,Wunderground v.1.15,2013-07-02 00:33:00,
2013-07-01 19:34:00,73.8,54.5,30.03,NE,53,2.0,6.0,51,0.00,,,0.00,Wunderground v.1.15,2013-07-02 00:34:00,
2013-07-01 19:35:00,73.7,55.0,30.03,NE,53,2.0,6.0,52,0.00,,,0.00,Wunderground v.1.15,2013-07-02 00:35:00,
2013-07-01 19:37:00,73.6,55.4,30.03,NE,55,2.0,6.0,53,0.00,,,0.00,Wunderground v.1.15,2013-07-02 00:37:00,
2013-07-01 19:41:00,73.3,54.6,30.03,NE,49,2.0,2.0,52,0.00,,,0.00,Wunderground v.1.15,2013-07-02 00:41:00,
2013-07-01 19:43:00,73.2,54.5,30.03,ENE,57,2.0,4.0,52,0.00,,,0.00,Wunderground v.1.15,2013-07-02 00:43:00,
2013-07-01 19:45:00,73.1,55.5,30.03,ENE,57,2.0,4.0,54,0.00,,,0.00,Wunderground v.1.15,2013-07-02 00:45:00,
2013-07-01 19:46:00,73.1,55.5,30.03,ENE,57,2.0,4.0,54,0.00,,,0.00,Wunderground v.1.15,2013-07-02 00:46:00,
2013-07-01 19:47:00,73.1,55.5,30.03,ENE,57,1.0,4.0,54,0.00,,,0.00,Wunderground v.1.15,2013-07-02 00:47:00,
2013-07-01 19:48:00,73.0,54.9,30.03,ENE,57,1.0,4.0,53,0.00,,,0.00,Wunderground v.1.15,2013-07-02 00:48:00,
2013-07-01 19:50:00,72.9,55.3,30.03,ENE,57,1.0,1.0,54,0.00,,,0.00,Wunderground v.1.15,2013-07-02 00:50:00,
2013-07-01 19:51:00,72.8,55.2,30.03,ENE,57,1.0,1.0,54,0.00,,,0.00,Wunderground v.1.15,2013-07-02 00:51:00,
2013-07-01 19:56:00,72.5,54.9,30.03,ENE,57,1.0,4.0,54,0.00,,,0.00,Wunderground v.1.15,2013-07-02 00:56:00,
2013-07-01 19:57:00,72.5,54.9,30.03,ENE,57,1.0,4.0,54,0.00,,,0.00,Wunderground v.1.15,2013-07-02 00:57:00,
2013-07-01 19:58:00,72.4,55.3,30.03,ENE,57,1.0,4.0,55,0.00,,,0.00,Wunderground v.1.15,2013-07-02 00:58:00,
2013-07-01 19:59:00,72.4,55.3,30.03,ENE,57,1.0,4.0,55,0.00,,,0.00,Wunderground v.1.15,2013-07-02 00:59:00,
2013-07-01 20:00:00,72.3,54.7,30.03,ENE,57,1.0,1.0,54,0.00,,,0.00,Wunderground v.1.15,2013-07-02 01:00:00,
2013-07-01 20:02:00,72.2,55.1,30.03,ENE,57,1.0,2.0,55,0.00,,,0.00,Wunderground v.1.15,2013-07-02 01:02:00,
2013-07-01 20:04:00,72.1,55.0,30.03,ENE,57,1.0,2.0,55,0.00,,,0.00,Wunderground v.1.15,2013-07-02 01:04:00,
2013-07-01 20:07:00,72.0,55.4,30.03,ENE,57,1.0,2.0,56,0.00,,,0.00,Wunderground v.1.15,2013-07-02 01:07:00,
2013-07-01 20:09:00,71.9,54.9,30.03,ENE,57,1.0,2.0,55,0.00,,,0.00,Wunderground v.1.15,2013-07-02 01:09:00,
2013-07-01 20:10:00,71.8,54.8,30.03,ENE,57,0.0,0.0,55,0.00,,,0.00,Wunderground v.1.15,2013-07-02 01:10:00,
2013-07-01 20:14:00,71.5,55.0,30.03,ENE,63,0.0,5.0,56,0.00,,,0.00,Wunderground v.1.15,2013-07-02 01:14:00,
2013-07-01 20:15:00,71.5,55.0,30.03,ENE,62,0.0,5.0,56,0.00,,,0.00,Wunderground v.1.15,2013-07-02 01:15:00,
2013-07-01 20:16:00,71.3,54.8,30.04,ENE,62,0.0,5.0,56,0.00,,,0.00,Wunderground v.1.15,2013-07-02 01:16:00,
2013-07-01 20:18:00,71.3,54.8,30.03,ENE,61,1.0,5.0,56,0.00,,,0.00,Wunderground v.1.15,2013-07-02 01:18:00,
2013-07-01 20:21:00,71.1,54.6,30.03,ENE,61,1.0,1.0,56,0.00,,,0.00,Wunderground v.1.15,2013-07-02 01:21:00,
2013-07-01 20:22:00,71.1,55.1,30.03,ENE,61,1.0,1.0,57,0.00,,,0.00,Wunderground v.1.15,2013-07-02 01:22:00,
2013-07-01 20:23:00,71.0,55.0,30.04,ENE,60,1.0,3.0,57,0.00,,,0.00,Wunderground v.1.15,2013-07-02 01:23:00,
2013-07-01 20:24:00,71.0,54.5,30.04,ENE,60,1.0,3.0,56,0.00,,,0.00,Wunderground v.1.15,2013-07-02 01:24:00,
2013-07-01 20:28:00,70.8,54.8,30.03,ENE,59,1.0,3.0,57,0.00,,,0.00,Wunderground v.1.15,2013-07-02 01:28:00,
2013-07-01 20:29:00,70.7,54.7,30.04,ENE,59,1.0,3.0,57,0.00,,,0.00,Wunderground v.1.15,2013-07-02 01:29:00,
2013-07-01 20:33:00,70.5,54.5,30.03,ENE,59,1.0,3.0,57,0.00,,,0.00,Wunderground v.1.15,2013-07-02 01:33:00,
2013-07-01 20:34:00,70.4,54.9,30.04,ENE,59,1.0,3.0,58,0.00,,,0.00,Wunderground v.1.15,2013-07-02 01:34:00,
2013-07-01 20:36:00,70.3,54.8,30.04,ENE,59,1.0,3.0,58,0.00,,,0.00,Wunderground v.1.15,2013-07-02 01:36:00,
2013-07-01 20:40:00,70.0,55.0,30.04,ENE,59,0.0,0.0,59,0.00,,,0.00,Wunderground v.1.15,2013-07-02 01:40:00,
2013-07-01 20:41:00,70.0,55.0,30.04,ENE,59,0.0,1.0,59,0.00,,,0.00,Wunderground v.1.15,2013-07-02 01:41:00,
2013-07-01 20:44:00,69.8,54.8,30.04,ENE,59,0.0,1.0,59,0.00,,,0.00,Wunderground v.1.15,2013-07-02 01:44:00,
2013-07-01 20:46:00,69.6,55.1,30.04,ENE,59,0.0,1.0,60,0.00,,,0.00,Wunderground v.1.15,2013-07-02 01:46:00,
2013-07-01 20:50:00,69.4,54.9,30.04,ENE,59,0.0,0.0,60,0.00,,,0.00,Wunderground v.1.15,2013-07-02 01:50:00,
2013-07-01 20:51:00,69.3,55.3,30.04,ENE,59,0.0,0.0,61,0.00,,,0.00,Wunderground v.1.15,2013-07-02 01:51:00,
2013-07-01 20:53:00,69.1,55.1,30.04,ENE,59,0.0,0.0,61,0.00,,,0.00,Wunderground v.1.15,2013-07-02 01:53:00,
2013-07-01 20:55:00,68.9,54.9,30.04,ENE,59,0.0,1.0,61,0.00,,,0.00,Wunderground v.1.15,2013-07-02 01:55:00,
2013-07-01 20:56:00,68.8,54.8,30.04,ENE,59,0.0,1.0,61,0.00,,,0.00,Wunderground v.1.15,2013-07-02 01:56:00,
2013-07-01 20:58:00,68.7,54.7,30.04,ENE,59,0.0,1.0,61,0.00,,,0.00,Wunderground v.1.15,2013-07-02 01:58:00,
2013-07-01 21:02:00,68.4,54.9,30.04,ENE,59,0.0,0.0,62,0.00,,,0.00,Wunderground v.1.15,2013-07-02 02:02:00,
2013-07-01 21:03:00,68.3,55.2,30.04,ENE,59,0.0,0.0,63,0.00,,,0.00,Wunderground v.1.15,2013-07-02 02:03:00,
2013-07-01 21:04:00,68.3,55.2,30.04,ENE,59,0.0,1.0,63,0.00,,,0.00,Wunderground v.1.15,2013-07-02 02:04:00,
2013-07-01 21:05:00,68.2,55.1,30.04,ENE,59,1.0,1.0,63,0.00,,,0.00,Wunderground v.1.15,2013-07-02 02:05:00,
2013-07-01 21:06:00,68.1,55.0,30.04,ENE,59,1.0,1.0,63,0.00,,,0.00,Wunderground v.1.15,2013-07-02 02:06:00,
2013-07-01 21:09:00,68.0,54.9,30.05,ENE,59,1.0,1.0,63,0.00,,,0.00,Wunderground v.1.15,2013-07-02 02:09:00,
2013-07-01 21:10:00,67.9,54.8,30.05,ENE,59,0.0,0.0,63,0.00,,,0.00,Wunderground v.1.15,2013-07-02 02:10:00,
2013-07-01 21:12:00,67.8,54.7,30.05,ENE,59,0.0,0.0,63,0.00,,,0.00,Wunderground v.1.15,2013-07-02 02:12:00,
2013-07-01 21:15:00,67.6,55.0,30.05,ENE,59,0.0,0.0,64,0.00,,,0.00,Wunderground v.1.15,2013-07-02 02:15:00,
2013-07-01 21:16:00,67.5,54.9,30.05,ENE,59,0.0,1.0,64,0.00,,,0.00,Wunderground v.1.15,2013-07-02 02:16:00,
2013-07-01 21:17:00,67.5,54.9,30.05,ENE,59,0.0,1.0,64,0.00,,,0.00,Wunderground v.1.15,2013-07-02 02:17:00,
2013-07-01 21:18:00,67.4,54.8,30.04,ENE,59,0.0,1.0,64,0.00,,,0.00,Wunderground v.1.15,2013-07-02 02:18:00,
2013-07-01 21:20:00,67.4,54.8,30.05,ENE,59,0.0,0.0,64,0.00,,,0.00,Wunderground v.1.15,2013-07-02 02:20:00,
2013-07-01 21:21:00,67.3,54.7,30.05,ENE,59,0.0,0.0,64,0.00,,,0.00,Wunderground v.1.15,2013-07-02 02:21:00,
2013-07-01 21:23:00,67.2,55.0,30.05,ENE,59,0.0,0.0,65,0.00,,,0.00,Wunderground v.1.15,2013-07-02 02:23:00,
2013-07-01 21:24:00,67.2,55.0,30.05,ENE,59,0.0,0.0,65,0.00,,,0.00,Wunderground v.1.15,2013-07-02 02:24:00,
2013-07-01 21:26:00,67.1,54.9,30.05,ENE,59,0.0,0.0,65,0.00,,,0.00,Wunderground v.1.15,2013-07-02 02:26:00,
2013-07-01 21:28:00,67.0,54.8,30.05,ENE,59,0.0,0.0,65,0.00,,,0.00,Wunderground v.1.15,2013-07-02 02:28:00,
2013-07-01 21:29:00,66.9,54.7,30.05,ENE,59,0.0,0.0,65,0.00,,,0.00,Wunderground v.1.15,2013-07-02 02:29:00,
2013-07-01 21:30:00,66.9,55.2,30.05,ENE,59,0.0,1.0,66,0.00,,,0.00,Wunderground v.1.15,2013-07-02 02:30:00,
2013-07-01 21:32:00,66.8,55.1,30.05,ENE,59,0.0,1.0,66,0.00,,,0.00,Wunderground v.1.15,2013-07-02 02:32:00,
2013-07-01 21:34:00,66.7,55.0,30.05,ENE,59,0.0,1.0,66,0.00,,,0.00,Wunderground v.1.15,2013-07-02 02:34:00,
2013-07-01 21:36:00,66.5,54.8,30.05,ENE,59,0.0,1.0,66,0.00,,,0.00,Wunderground v.1.15,2013-07-02 02:36:00,
2013-07-01 21:37:00,66.5,54.8,30.05,ENE,59,0.0,1.0,66,0.00,,,0.00,Wunderground v.1.15,2013-07-02 02:37:00,
2013-07-01 21:39:00,66.4,55.1,30.05,ENE,59,0.0,1.0,67,0.00,,,0.00,Wunderground v.1.15,2013-07-02 02:39:00,
2013-07-01 21:41:00,66.2,54.9,30.05,ENE,59,0.0,0.0,67,0.00,,,0.00,Wunderground v.1.15,2013-07-02 02:41:00,
2013-07-01 21:42:00,66.2,55.3,30.05,ENE,59,0.0,0.0,68,0.00,,,0.00,Wunderground v.1.15,2013-07-02 02:42:00,
2013-07-01 21:44:00,66.0,55.1,30.05,ENE,59,0.0,0.0,68,0.00,,,0.00,Wunderground v.1.15,2013-07-02 02:44:00,
2013-07-01 21:45:00,66.0,55.1,30.05,ENE,59,0.0,0.0,68,0.00,,,0.00,Wunderground v.1.15,2013-07-02 02:45:00,
2013-07-01 21:50:00,65.7,54.8,30.05,ENE,59,0.0,0.0,68,0.00,,,0.00,Wunderground v.1.15,2013-07-02 02:50:00,
2013-07-01 21:51:00,65.6,55.2,30.05,ENE,59,0.0,0.0,69,0.00,,,0.00,Wunderground v.1.15,2013-07-02 02:51:00,
2013-07-01 21:52:00,65.5,55.1,30.05,ENE,59,0.0,0.0,69,0.00,,,0.00,Wunderground v.1.15,2013-07-02 02:52:00,
2013-07-01 21:55:00,65.4,55.0,30.05,ENE,59,0.0,0.0,69,0.00,,,0.00,Wunderground v.1.15,2013-07-02 02:55:00,
2013-07-01 21:56:00,65.3,54.9,30.05,ENE,59,0.0,0.0,69,0.00,,,0.00,Wunderground v.1.15,2013-07-02 02:56:00,
2013-07-01 21:57:00,65.3,54.9,30.05,ENE,59,0.0,0.0,69,0.00,,,0.00,Wunderground v.1.15,2013-07-02 02:57:00,
2013-07-01 21:58:00,65.3,54.9,30.05,ENE,59,0.0,0.0,69,0.00,,,0.00,Wunderground v.1.15,2013-07-02 02:58:00,
2013-07-01 22:03:00,65.3,54.9,30.05,ENE,59,0.0,1.0,69,0.00,,,0.00,Wunderground v.1.15,2013-07-02 03:03:00,
2013-07-01 22:04:00,65.2,54.8,30.05,ENE,59,0.0,1.0,69,0.00,,,0.00,Wunderground v.1.15,2013-07-02 03:04:00,
2013-07-01 22:05:00,65.3,54.9,30.05,ENE,59,0.0,1.0,69,0.00,,,0.00,Wunderground v.1.15,2013-07-02 03:05:00,
2013-07-01 22:07:00,65.3,54.9,30.05,ENE,59,0.0,2.0,69,0.00,,,0.00,Wunderground v.1.15,2013-07-02 03:07:00,
2013-07-01 22:08:00,65.3,54.5,30.05,ENE,59,0.0,2.0,68,0.00,,,0.00,Wunderground v.1.15,2013-07-02 03:08:00,
2013-07-01 22:09:00,65.3,54.5,30.05,ENE,59,1.0,2.0,68,0.00,,,0.00,Wunderground v.1.15,2013-07-02 03:09:00,
2013-07-01 22:10:00,65.3,54.5,30.05,ENE,59,1.0,1.0,68,0.00,,,0.00,Wunderground v.1.15,2013-07-02 03:10:00,
2013-07-01 22:12:00,65.4,54.6,30.05,ENE,59,0.0,1.0,68,0.00,,,0.00,Wunderground v.1.15,2013-07-02 03:12:00,
2013-07-01 22:14:00,65.4,54.6,30.05,ENE,59,0.0,1.0,68,0.00,,,0.00,Wunderground v.1.15,2013-07-02 03:14:00,
2013-07-01 22:16:00,65.4,54.6,30.05,ENE,59,0.0,1.0,68,0.00,,,0.00,Wunderground v.1.15,2013-07-02 03:16:00,
2013-07-01 22:17:00,65.4,54.6,30.05,ENE,59,0.0,1.0,68,0.00,,,0.00,Wunderground v.1.15,2013-07-02 03:17:00,
2013-07-01 22:21:00,65.3,54.1,30.05,ENE,65,0.0,2.0,67,0.00,,,0.00,Wunderground v.1.15,2013-07-02 03:21:00,
2013-07-01 22:24:00,65.3,54.1,30.05,ENE,65,0.0,2.0,67,0.00,,,0.00,Wunderground v.1.15,2013-07-02 03:24:00,
2013-07-01 22:27:00,65.3,53.6,30.05,ENE,63,1.0,2.0,66,0.00,,,0.00,Wunderground v.1.15,2013-07-02 03:27:00,
2013-07-01 22:29:00,65.4,53.7,30.05,ENE,63,1.0,2.0,66,0.00,,,0.00,Wunderground v.1.15,2013-07-02 03:29:00,
2013-07-01 22:32:00,65.4,53.7,30.05,ENE,63,1.0,2.0,66,0.00,,,0.00,Wunderground v.1.15,2013-07-02 03:32:00,
2013-07-01 22:33:00,65.4,53.7,30.05,ENE,64,1.0,2.0,66,0.00,,,0.00,Wunderground v.1.15,2013-07-02 03:33:00,
2013-07-01 22:34:00,65.4,53.3,30.05,ENE,61,1.0,3.0,65,0.00,,,0.00,Wunderground v.1.15,2013-07-02 03:34:00,
2013-07-01 22:35:00,65.4,53.3,30.05,NE,46,1.0,4.0,65,0.00,,,0.00,Wunderground v.1.15,2013-07-02 03:35:00,
2013-07-01 22:37:00,65.4,53.3,30.05,NE,46,1.0,4.0,65,0.00,,,0.00,Wunderground v.1.15,2013-07-02 03:37:00,
2013-07-01 22:39:00,65.5,53.4,30.05,NE,46,2.0,4.0,65,0.00,,,0.00,Wunderground v.1.15,2013-07-02 03:39:00,
2013-07-01 22:43:00,65.6,53.1,30.05,NE,49,2.0,4.0,64,0.00,,,0.00,Wunderground v.1.15,2013-07-02 03:43:00,
2013-07-01 22:44:00,65.6,53.1,30.05,NE,50,2.0,4.0,64,0.00,,,0.00,Wunderground v.1.15,2013-07-02 03:44:00,
2013-07-01 22:45:00,65.6,53.1,30.05,NE,50,2.0,4.0,64,0.00,,,0.00,Wunderground v.1.15,2013-07-02 03:45:00,
2013-07-01 22:46:00,65.6,53.1,30.05,NE,50,1.0,4.0,64,0.00,,,0.00,Wunderground v.1.15,2013-07-02 03:46:00,
2013-07-01 22:49:00,65.6,53.1,30.05,NE,50,1.0,4.0,64,0.00,,,0.00,Wunderground v.1.15,2013-07-02 03:49:00,
2013-07-01 22:50:00,65.6,53.1,30.05,NE,50,1.0,1.0,64,0.00,,,0.00,Wunderground v.1.15,2013-07-02 03:50:00,
2013-07-01 22:53:00,65.5,53.0,30.06,NE,50,1.0,4.0,64,0.00,,,0.00,Wunderground v.1.15,2013-07-02 03:53:00,
2013-07-01 22:54:00,65.5,53.0,30.06,NE,50,1.0,4.0,64,0.00,,,0.00,Wunderground v.1.15,2013-07-02 03:54:00,
2013-07-01 22:57:00,65.4,52.9,30.06,NE,50,1.0,4.0,64,0.00,,,0.00,Wunderground v.1.15,2013-07-02 03:57:00,
2013-07-01 22:58:00,65.4,52.9,30.06,NE,50,1.0,4.0,64,0.00,,,0.00,Wunderground v.1.15,2013-07-02 03:58:00,
2013-07-01 22:59:00,65.3,53.2,30.06,NE,50,1.0,4.0,65,0.00,,,0.00,Wunderground v.1.15,2013-07-02 03:59:00,
2013-07-01 23:01:00,65.2,52.7,30.05,NE,50,1.0,1.0,64,0.00,,,0.00,Wunderground v.1.15,2013-07-02 04:01:00,
2013-07-01 23:02:00,65.2,52.7,30.05,NE,50,0.0,1.0,64,0.00,,,0.00,Wunderground v.1.15,2013-07-02 04:02:00,
2013-07-01 23:03:00,65.2,52.7,30.06,NE,50,0.0,1.0,64,0.00,,,0.00,Wunderground v.1.15,2013-07-02 04:03:00,
2013-07-01 23:07:00,65.0,52.9,30.05,NE,50,0.0,1.0,65,0.00,,,0.00,Wunderground v.1.15,2013-07-02 04:07:00,
2013-07-01 23:08:00,64.9,52.8,30.06,NE,50,0.0,1.0,65,0.00,,,0.00,Wunderground v.1.15,2013-07-02 04:08:00,
2013-07-01 23:09:00,64.9,52.8,30.05,NE,50,0.0,1.0,65,0.00,,,0.00,Wunderground v.1.15,2013-07-02 04:09:00,
2013-07-01 23:10:00,64.8,53.2,30.06,NE,50,0.0,0.0,66,0.00,,,0.00,Wunderground v.1.15,2013-07-02 04:10:00,
2013-07-01 23:14:00,64.6,53.0,30.05,NE,50,0.0,0.0,66,0.00,,,0.00,Wunderground v.1.15,2013-07-02 04:14:00,
2013-07-01 23:15:00,64.5,52.9,30.05,NE,50,0.0,0.0,66,0.00,,,0.00,Wunderground v.1.15,2013-07-02 04:15:00,
2013-07-01 23:16:00,64.5,52.9,30.05,NE,50,0.0,0.0,66,0.00,,,0.00,Wunderground v.1.15,2013-07-02 04:16:00,
2013-07-01 23:17:00,64.4,52.8,30.05,NE,50,0.0,0.0,66,0.00,,,0.00,Wunderground v.1.15,2013-07-02 04:17:00,
2013-07-01 23:18:00,64.4,52.8,30.05,NE,50,0.0,0.0,66,0.00,,,0.00,Wunderground v.1.15,2013-07-02 04:18:00,
2013-07-01 23:21:00,64.2,52.6,30.05,NE,49,0.0,2.0,66,0.00,,,0.00,Wunderground v.1.15,2013-07-02 04:21:00,
2013-07-01 23:22:00,64.2,52.6,30.05,NE,49,0.0,2.0,66,0.00,,,0.00,Wunderground v.1.15,2013-07-02 04:22:00,
2013-07-01 23:23:00,64.1,52.5,30.05,NE,49,0.0,2.0,66,0.00,,,0.00,Wunderground v.1.15,2013-07-02 04:23:00,
2013-07-01 23:26:00,64.0,52.4,30.05,NE,49,0.0,2.0,66,0.00,,,0.00,Wunderground v.1.15,2013-07-02 04:26:00,
2013-07-01 23:27:00,64.0,52.4,30.05,NE,49,0.0,2.0,66,0.00,,,0.00,Wunderground v.1.15,2013-07-02 04:27:00,
2013-07-01 23:28:00,63.9,52.7,30.05,NE,49,0.0,2.0,67,0.00,,,0.00,Wunderground v.1.15,2013-07-02 04:28:00,
2013-07-01 23:29:00,63.9,52.7,30.05,NE,49,0.0,2.0,67,0.00,,,0.00,Wunderground v.1.15,2013-07-02 04:29:00,
2013-07-01 23:32:00,63.8,52.6,30.05,NE,49,0.0,3.0,67,0.00,,,0.00,Wunderground v.1.15,2013-07-02 04:32:00,
2013-07-01 23:34:00,63.7,52.1,30.05,NE,49,1.0,4.0,66,0.00,,,0.00,Wunderground v.1.15,2013-07-02 04:34:00,
2013-07-01 23:35:00,63.7,52.1,30.05,NE,49,1.0,4.0,66,0.00,,,0.00,Wunderground v.1.15,2013-07-02 04:35:00,
2013-07-01 23:38:00,63.6,52.0,30.05,NE,49,1.0,4.0,66,0.00,,,0.00,Wunderground v.1.15,2013-07-02 04:38:00,
2013-07-01 23:39:00,63.6,52.0,30.05,NE,49,1.0,4.0,66,0.00,,,0.00,Wunderground v.1.15,2013-07-02 04:39:00,
2013-07-01 23:42:00,63.5,51.9,30.06,NE,49,1.0,1.0,66,0.00,,,0.00,Wunderground v.1.15,2013-07-02 04:42:00,
2013-07-01 23:43:00,63.6,52.0,30.06,NE,49,1.0,1.0,66,0.00,,,0.00,Wunderground v.1.15,2013-07-02 04:43:00,
2013-07-01 23:44:00,63.5,51.9,30.06,NE,49,1.0,1.0,66,0.00,,,0.00,Wunderground v.1.15,2013-07-02 04:44:00,
2013-07-01 23:46:00,63.5,51.9,30.06,NE,49,0.0,1.0,66,0.00,,,0.00,Wunderground v.1.15,2013-07-02 04:46:00,
2013-07-01 23:48:00,63.4,52.2,30.05,NE,49,0.0,1.0,67,0.00,,,0.00,Wunderground v.1.15,2013-07-02 04:48:00,
2013-07-01 23:49:00,63.4,52.2,30.05,NE,49,0.0,1.0,67,0.00,,,0.00,Wunderground v.1.15,2013-07-02 04:49:00,
2013-07-01 23:51:00,63.3,52.2,30.05,NE,49,0.0,0.0,67,0.00,,,0.00,Wunderground v.1.15,2013-07-02 04:51:00,
2013-07-01 23:54:00,63.2,52.5,30.05,NE,49,0.0,0.0,68,0.00,,,0.00,Wunderground v.1.15,2013-07-02 04:54:00,
2013-07-01 23:55:00,63.1,52.4,30.05,NE,49,0.0,0.0,68,0.00,,,0.00,Wunderground v.1.15,2013-07-02 04:55:00,
2013-07-01 23:58:00,62.9,52.2,30.05,NE,49,0.0,0.0,68,0.00,,,0.00,Wunderground v.1.15,2013-07-02 04:58:00,